Time,TemperatureF,DewpointF,PressureIn,WindDirection,WindDirectionDegrees,WindSpeedMPH,WindSpeedGustMPH,Humidity,HourlyPrecipIn,Conditions,Clouds,dailyrainin,SoftwareType,DateUTC
2013-04-29 00:01:00,46.2,41.6,30.29,WSW,242,0.0,0.0,84,0.00,,,0.00,Wunderground v.1.15,2013-04-29 04:01:00,
2013-04-29 00:02:00,46.2,41.6,30.29,WSW,248,0.0,0.0,84,0.00,,,0.00,Wunderground v.1.15,2013-04-29 04:02:00,
2013-04-29 00:03:00,46.1,41.5,30.29,WSW,247,0.0,0.0,84,0.00,,,0.00,Wunderground v.1.15,2013-04-29 04:03:00,
2013-04-29 00:04:00,46.1,41.8,30.29,West,267,0.0,0.0,85,0.00,,,0.00,Wunderground v.1.15,2013-04-29 04:04:00,
2013-04-29 00:08:00,46.0,41.7,30.29,SSW,212,0.0,0.0,85,0.00,,,0.00,Wunderground v.1.15,2013-04-29 04:08:00,
2013-04-29 00:09:00,46.0,41.7,30.29,South,191,0.0,0.0,85,0.00,,,0.00,Wunderground v.1.15,2013-04-29 04:09:00,
2013-04-29 00:10:00,46.0,41.7,30.30,SSW,194,0.0,0.0,85,0.00,,,0.00,Wunderground v.1.15,2013-04-29 04:10:00,
2013-04-29 00:13:00,45.9,41.6,30.30,WSW,247,0.0,0.0,85,0.00,,,0.00,Wunderground v.1.15,2013-04-29 04:13:00,
2013-04-29 00:15:00,45.9,41.6,30.29,WSW,246,0.0,0.0,85,0.00,,,0.00,Wunderground v.1.15,2013-04-29 04:15:00,
2013-04-29 00:16:00,45.9,41.9,30.29,SE,133,0.0,0.0,86,0.00,,,0.00,Wunderground v.1.15,2013-04-29 04:16:00,
2013-04-29 00:19:00,45.8,41.9,30.29,WNW,293,0.0,0.0,86,0.00,,,0.00,Wunderground v.1.15,2013-04-29 04:19:00,
2013-04-29 00:22:00,45.7,41.8,30.29,SW,226,0.0,0.0,86,0.00,,,0.00,Wunderground v.1.15,2013-04-29 04:22:00,
2013-04-29 00:23:00,45.7,41.8,30.29,SW,227,0.0,0.0,86,0.00,,,0.00,Wunderground v.1.15,2013-04-29 04:23:00,
2013-04-29 00:26:00,45.7,41.8,30.29,SW,219,0.0,0.0,86,0.00,,,0.00,Wunderground v.1.15,2013-04-29 04:26:00,
2013-04-29 00:28:00,45.7,42.1,30.29,SW,222,0.0,0.0,87,0.00,,,0.00,Wunderground v.1.15,2013-04-29 04:28:00,
2013-04-29 00:29:00,45.7,42.1,30.29,SW,222,0.0,0.0,87,0.00,,,0.00,Wunderground v.1.15,2013-04-29 04:29:00,
2013-04-29 00:30:00,45.7,42.1,30.29,SW,222,0.0,0.0,87,0.00,,,0.00,Wunderground v.1.15,2013-04-29 04:30:00,
2013-04-29 00:31:00,45.7,42.1,30.29,West,264,1.0,1.0,87,0.00,,,0.00,Wunderground v.1.15,2013-04-29 04:31:00,
2013-04-29 00:32:00,45.7,42.1,30.29,WSW,255,0.0,1.0,87,0.00,,,0.00,Wunderground v.1.15,2013-04-29 04:32:00,
2013-04-29 00:34:00,45.6,42.0,30.29,WSW,254,0.0,1.0,87,0.00,,,0.00,Wunderground v.1.15,2013-04-29 04:34:00,
2013-04-29 00:35:00,45.6,42.0,30.29,WSW,255,0.0,1.0,87,0.00,,,0.00,Wunderground v.1.15,2013-04-29 04:35:00,
2013-04-29 00:38:00,45.6,42.0,30.29,WSW,255,0.0,1.0,87,0.00,,,0.00,Wunderground v.1.15,2013-04-29 04:38:00,
2013-04-29 00:40:00,45.6,42.0,30.29,West,262,0.0,0.0,87,0.00,,,0.00,Wunderground v.1.15,2013-04-29 04:40:00,
2013-04-29 00:41:00,45.5,41.9,30.29,West,262,0.0,0.0,87,0.00,,,0.00,Wunderground v.1.15,2013-04-29 04:41:00,
2013-04-29 00:43:00,45.5,41.9,30.29,SW,229,0.0,2.0,87,0.00,,,0.00,Wunderground v.1.15,2013-04-29 04:43:00,
2013-04-29 00:46:00,45.4,41.8,30.29,SW,229,0.0,2.0,87,0.00,,,0.00,Wunderground v.1.15,2013-04-29 04:46:00,
2013-04-29 00:47:00,45.3,41.7,30.29,SW,229,0.0,2.0,87,0.00,,,0.00,Wunderground v.1.15,2013-04-29 04:47:00,
2013-04-29 00:49:00,45.3,41.7,30.29,WSW,243,0.0,2.0,87,0.00,,,0.00,Wunderground v.1.15,2013-04-29 04:49:00,
2013-04-29 00:52:00,45.3,42.0,30.29,SW,221,0.0,0.0,88,0.00,,,0.00,Wunderground v.1.15,2013-04-29 04:52:00,
2013-04-29 00:53:00,45.3,42.0,30.29,SSW,210,0.0,0.0,88,0.00,,,0.00,Wunderground v.1.15,2013-04-29 04:53:00,
2013-04-29 00:56:00,45.3,42.0,30.29,SW,225,0.0,0.0,88,0.00,,,0.00,Wunderground v.1.15,2013-04-29 04:56:00,
2013-04-29 00:57:00,45.3,42.0,30.29,SW,225,0.0,0.0,88,0.00,,,0.00,Wunderground v.1.15,2013-04-29 04:57:00,
2013-04-29 01:00:00,45.3,42.0,30.29,SW,233,0.0,0.0,88,0.00,,,0.00,Wunderground v.1.15,2013-04-29 05:00:00,
2013-04-29 01:02:00,45.3,42.0,30.29,SW,233,0.0,0.0,88,0.00,,,0.00,Wunderground v.1.15,2013-04-29 05:02:00,
2013-04-29 01:04:00,45.3,42.0,30.29,SW,233,0.0,0.0,88,0.00,,,0.00,Wunderground v.1.15,2013-04-29 05:04:00,
2013-04-29 01:06:00,45.2,41.9,30.29,SW,233,0.0,0.0,88,0.00,,,0.00,Wunderground v.1.15,2013-04-29 05:06:00,
2013-04-29 01:08:00,45.2,41.9,30.29,SW,233,0.0,0.0,88,0.00,,,0.00,Wunderground v.1.15,2013-04-29 05:08:00,
2013-04-29 01:09:00,45.2,41.9,30.29,SW,233,0.0,0.0,88,0.00,,,0.00,Wunderground v.1.15,2013-04-29 05:09:00,
2013-04-29 01:12:00,45.1,42.1,30.28,WSW,252,0.0,0.0,89,0.00,,,0.00,Wunderground v.1.15,2013-04-29 05:12:00,
2013-04-29 01:14:00,45.1,42.1,30.29,SSW,197,0.0,0.0,89,0.00,,,0.00,Wunderground v.1.15,2013-04-29 05:14:00,
2013-04-29 01:15:00,45.1,42.1,30.29,SSW,198,0.0,0.0,89,0.00,,,0.00,Wunderground v.1.15,2013-04-29 05:15:00,
2013-04-29 01:17:00,45.0,42.0,30.29,SSW,198,0.0,0.0,89,0.00,,,0.00,Wunderground v.1.15,2013-04-29 05:17:00,
2013-04-29 01:21:00,44.9,41.9,30.28,West,263,0.0,0.0,89,0.00,,,0.00,Wunderground v.1.15,2013-04-29 05:21:00,
2013-04-29 01:23:00,44.9,41.9,30.28,WSW,250,0.0,0.0,89,0.00,,,0.00,Wunderground v.1.15,2013-04-29 05:23:00,
2013-04-29 01:24:00,44.9,41.9,30.28,West,260,0.0,0.0,89,0.00,,,0.00,Wunderground v.1.15,2013-04-29 05:24:00,
2013-04-29 01:25:00,44.9,41.9,30.28,West,261,0.0,0.0,89,0.00,,,0.00,Wunderground v.1.15,2013-04-29 05:25:00,
2013-04-29 01:29:00,44.8,41.8,30.28,West,260,0.0,0.0,89,0.00,,,0.00,Wunderground v.1.15,2013-04-29 05:29:00,
2013-04-29 01:30:00,44.8,41.8,30.28,West,260,0.0,0.0,89,0.00,,,0.00,Wunderground v.1.15,2013-04-29 05:30:00,
2013-04-29 01:31:00,44.8,41.8,30.28,West,267,0.0,0.0,89,0.00,,,0.00,Wunderground v.1.15,2013-04-29 05:31:00,
2013-04-29 01:34:00,44.7,41.7,30.28,West,266,0.0,0.0,89,0.00,,,0.00,Wunderground v.1.15,2013-04-29 05:34:00,
2013-04-29 01:35:00,44.8,41.8,30.28,West,262,0.0,0.0,89,0.00,,,0.00,Wunderground v.1.15,2013-04-29 05:35:00,
2013-04-29 01:36:00,44.7,41.7,30.28,West,262,0.0,0.0,89,0.00,,,0.00,Wunderground v.1.15,2013-04-29 05:36:00,
2013-04-29 01:38:00,44.7,41.7,30.28,West,260,0.0,0.0,89,0.00,,,0.00,Wunderground v.1.15,2013-04-29 05:38:00,
2013-04-29 01:40:00,44.8,41.8,30.28,SW,217,0.0,0.0,89,0.00,,,0.00,Wunderground v.1.15,2013-04-29 05:40:00,
2013-04-29 01:41:00,44.8,41.8,30.28,WSW,244,0.0,0.0,89,0.00,,,0.00,Wunderground v.1.15,2013-04-29 05:41:00,
2013-04-29 01:43:00,44.9,42.1,30.28,West,259,1.0,1.0,90,0.00,,,0.00,Wunderground v.1.15,2013-04-29 05:43:00,
2013-04-29 01:44:00,44.9,42.1,30.28,WSW,258,0.0,1.0,90,0.00,,,0.00,Wunderground v.1.15,2013-04-29 05:44:00,
2013-04-29 01:47:00,45.0,42.2,30.28,WSW,255,0.0,1.0,90,0.00,,,0.00,Wunderground v.1.15,2013-04-29 05:47:00,
2013-04-29 01:49:00,45.0,42.2,30.28,SW,218,0.0,1.0,90,0.00,,,0.00,Wunderground v.1.15,2013-04-29 05:49:00,
2013-04-29 01:52:00,45.0,42.2,30.28,SW,214,0.0,0.0,90,0.00,,,0.00,Wunderground v.1.15,2013-04-29 05:52:00,
2013-04-29 01:53:00,45.0,42.2,30.28,SW,214,0.0,0.0,90,0.00,,,0.00,Wunderground v.1.15,2013-04-29 05:53:00,
2013-04-29 01:55:00,45.0,42.2,30.27,SW,221,0.0,0.0,90,0.00,,,0.00,Wunderground v.1.15,2013-04-29 05:55:00,
2013-04-29 01:56:00,45.0,42.2,30.27,SW,221,0.0,0.0,90,0.00,,,0.00,Wunderground v.1.15,2013-04-29 05:56:00,
2013-04-29 01:58:00,45.0,42.2,30.27,SW,221,0.0,0.0,90,0.00,,,0.00,Wunderground v.1.15,2013-04-29 05:58:00,
2013-04-29 01:59:00,45.0,42.2,30.27,SW,221,0.0,0.0,90,0.00,,,0.00,Wunderground v.1.15,2013-04-29 05:59:00,
2013-04-29 02:00:00,45.0,42.2,30.27,SW,220,0.0,0.0,90,0.00,,,0.00,Wunderground v.1.15,2013-04-29 06:00:00,
2013-04-29 02:01:00,45.0,42.2,30.27,SW,220,0.0,0.0,90,0.00,,,0.00,Wunderground v.1.15,2013-04-29 06:01:00,
2013-04-29 02:03:00,44.9,42.1,30.27,West,259,0.0,1.0,90,0.00,,,0.00,Wunderground v.1.15,2013-04-29 06:03:00,
2013-04-29 02:04:00,44.9,42.1,30.27,West,259,0.0,1.0,90,0.00,,,0.00,Wunderground v.1.15,2013-04-29 06:04:00,
2013-04-29 02:05:00,44.9,42.1,30.27,WSW,256,0.0,1.0,90,0.00,,,0.00,Wunderground v.1.15,2013-04-29 06:05:00,
2013-04-29 02:06:00,44.9,42.1,30.27,SSW,210,0.0,1.0,90,0.00,,,0.00,Wunderground v.1.15,2013-04-29 06:06:00,
2013-04-29 02:08:00,44.9,42.1,30.27,SSW,210,0.0,1.0,90,0.00,,,0.00,Wunderground v.1.15,2013-04-29 06:08:00,
2013-04-29 02:09:00,44.9,42.1,30.27,SSW,210,0.0,1.0,90,0.00,,,0.00,Wunderground v.1.15,2013-04-29 06:09:00,
2013-04-29 02:10:00,44.9,42.1,30.27,SSW,210,0.0,0.0,90,0.00,,,0.00,Wunderground v.1.15,2013-04-29 06:10:00,
2013-04-29 02:11:00,44.9,42.1,30.27,SSW,210,0.0,0.0,90,0.00,,,0.00,Wunderground v.1.15,2013-04-29 06:11:00,
2013-04-29 02:13:00,44.9,42.1,30.27,SSW,210,0.0,0.0,90,0.00,,,0.00,Wunderground v.1.15,2013-04-29 06:13:00,
2013-04-29 02:14:00,44.8,42.0,30.27,SSW,210,0.0,0.0,90,0.00,,,0.00,Wunderground v.1.15,2013-04-29 06:14:00,
2013-04-29 02:15:00,44.8,42.0,30.27,SSW,210,0.0,0.0,90,0.00,,,0.00,Wunderground v.1.15,2013-04-29 06:15:00,
2013-04-29 02:16:00,44.8,42.0,30.27,SSW,210,0.0,0.0,90,0.00,,,0.00,Wunderground v.1.15,2013-04-29 06:16:00,
2013-04-29 02:18:00,44.8,42.0,30.27,SW,231,1.0,1.0,90,0.00,,,0.00,Wunderground v.1.15,2013-04-29 06:18:00,
2013-04-29 02:20:00,44.8,42.0,30.26,SSE,150,0.0,1.0,90,0.00,,,0.00,Wunderground v.1.15,2013-04-29 06:20:00,
2013-04-29 02:21:00,44.8,42.0,30.26,WSW,245,0.0,1.0,90,0.00,,,0.00,Wunderground v.1.15,2013-04-29 06:21:00,
2013-04-29 02:23:00,44.8,42.0,30.26,WSW,240,0.0,1.0,90,0.00,,,0.00,Wunderground v.1.15,2013-04-29 06:23:00,
2013-04-29 02:25:00,44.9,42.1,30.26,WSW,239,0.0,1.0,90,0.00,,,0.00,Wunderground v.1.15,2013-04-29 06:25:00,
2013-04-29 02:26:00,44.9,42.1,30.26,WSW,239,0.0,1.0,90,0.00,,,0.00,Wunderground v.1.15,2013-04-29 06:26:00,
2013-04-29 02:29:00,45.0,42.2,30.26,WSW,246,1.0,1.0,90,0.00,,,0.00,Wunderground v.1.15,2013-04-29 06:29:00,
2013-04-29 02:30:00,45.0,42.2,30.26,WSW,238,0.0,1.0,90,0.00,,,0.00,Wunderground v.1.15,2013-04-29 06:30:00,
2013-04-29 02:31:00,45.1,42.3,30.26,SW,224,0.0,2.0,90,0.00,,,0.00,Wunderground v.1.15,2013-04-29 06:31:00,
2013-04-29 02:34:00,45.1,42.3,30.26,WSW,252,1.0,2.0,90,0.00,,,0.00,Wunderground v.1.15,2013-04-29 06:34:00,
2013-04-29 02:35:00,45.1,42.3,30.26,SW,236,0.0,2.0,90,0.00,,,0.00,Wunderground v.1.15,2013-04-29 06:35:00,
2013-04-29 02:37:00,45.1,42.3,30.26,SW,236,0.0,2.0,90,0.00,,,0.00,Wunderground v.1.15,2013-04-29 06:37:00,
2013-04-29 02:39:00,45.2,42.4,30.26,SSW,209,0.0,2.0,90,0.00,,,0.00,Wunderground v.1.15,2013-04-29 06:39:00,
2013-04-29 02:40:00,45.1,42.3,30.26,WSW,246,0.0,1.0,90,0.00,,,0.00,Wunderground v.1.15,2013-04-29 06:40:00,
2013-04-29 02:42:00,45.1,42.3,30.26,WSW,246,0.0,1.0,90,0.00,,,0.00,Wunderground v.1.15,2013-04-29 06:42:00,
2013-04-29 02:45:00,45.1,42.3,30.26,WSW,246,0.0,1.0,90,0.00,,,0.00,Wunderground v.1.15,2013-04-29 06:45:00,
2013-04-29 02:46:00,45.1,42.3,30.25,WSW,246,0.0,1.0,90,0.00,,,0.00,Wunderground v.1.15,2013-04-29 06:46:00,
2013-04-29 02:47:00,45.0,42.2,30.26,WSW,246,0.0,1.0,90,0.00,,,0.00,Wunderground v.1.15,2013-04-29 06:47:00,
2013-04-29 02:48:00,45.0,42.2,30.26,WSW,246,0.0,1.0,90,0.00,,,0.00,Wunderground v.1.15,2013-04-29 06:48:00,
2013-04-29 02:50:00,44.9,42.1,30.26,WSW,245,0.0,0.0,90,0.00,,,0.00,Wunderground v.1.15,2013-04-29 06:50:00,
2013-04-29 02:51:00,44.9,42.1,30.25,WSW,245,0.0,0.0,90,0.00,,,0.00,Wunderground v.1.15,2013-04-29 06:51:00,
2013-04-29 02:52:00,44.8,42.0,30.25,WSW,246,0.0,0.0,90,0.00,,,0.00,Wunderground v.1.15,2013-04-29 06:52:00,
2013-04-29 02:53:00,44.8,42.0,30.26,WSW,245,0.0,0.0,90,0.00,,,0.00,Wunderground v.1.15,2013-04-29 06:53:00,
2013-04-29 02:56:00,44.7,41.9,30.25,WSW,246,0.0,0.0,90,0.00,,,0.00,Wunderground v.1.15,2013-04-29 06:56:00,
2013-04-29 02:58:00,44.6,41.8,30.26,WSW,246,0.0,0.0,90,0.00,,,0.00,Wunderground v.1.15,2013-04-29 06:58:00,
2013-04-29 03:01:00,44.4,41.7,30.25,WSW,246,0.0,0.0,90,0.00,,,0.00,Wunderground v.1.15,2013-04-29 07:01:00,
2013-04-29 03:02:00,44.3,41.6,30.25,WSW,246,0.0,0.0,90,0.00,,,0.00,Wunderground v.1.15,2013-04-29 07:02:00,
2013-04-29 03:03:00,44.3,41.6,30.25,WSW,246,0.0,0.0,90,0.00,,,0.00,Wunderground v.1.15,2013-04-29 07:03:00,
2013-04-29 03:04:00,44.2,41.5,30.25,WSW,246,0.0,0.0,90,0.00,,,0.00,Wunderground v.1.15,2013-04-29 07:04:00,
2013-04-29 03:06:00,44.1,41.4,30.25,WSW,245,0.0,0.0,90,0.00,,,0.00,Wunderground v.1.15,2013-04-29 07:06:00,
2013-04-29 03:07:00,44.1,41.4,30.25,WSW,246,0.0,0.0,90,0.00,,,0.00,Wunderground v.1.15,2013-04-29 07:07:00,
2013-04-29 03:08:00,44.1,41.4,30.25,WSW,245,0.0,0.0,90,0.00,,,0.00,Wunderground v.1.15,2013-04-29 07:08:00,
2013-04-29 03:09:00,44.1,41.4,30.26,WSW,246,0.0,0.0,90,0.00,,,0.00,Wunderground v.1.15,2013-04-29 07:09:00,
2013-04-29 03:11:00,44.1,41.4,30.25,WSW,248,0.0,0.0,90,0.00,,,0.00,Wunderground v.1.15,2013-04-29 07:11:00,
2013-04-29 03:13:00,44.0,41.3,30.25,WSW,249,0.0,0.0,90,0.00,,,0.00,Wunderground v.1.15,2013-04-29 07:13:00,
2013-04-29 03:15:00,44.0,41.3,30.25,WSW,249,0.0,0.0,90,0.00,,,0.00,Wunderground v.1.15,2013-04-29 07:15:00,
2013-04-29 03:16:00,44.0,41.3,30.25,WSW,249,0.0,0.0,90,0.00,,,0.00,Wunderground v.1.15,2013-04-29 07:16:00,
2013-04-29 03:18:00,43.9,41.2,30.25,WSW,249,0.0,0.0,90,0.00,,,0.00,Wunderground v.1.15,2013-04-29 07:18:00,
2013-04-29 03:19:00,43.9,41.2,30.25,WSW,249,0.0,0.0,90,0.00,,,0.00,Wunderground v.1.15,2013-04-29 07:19:00,
2013-04-29 03:20:00,43.9,41.2,30.25,WSW,249,0.0,0.0,90,0.00,,,0.00,Wunderground v.1.15,2013-04-29 07:20:00,
2013-04-29 03:21:00,43.9,41.2,30.25,WSW,249,0.0,0.0,90,0.00,,,0.00,Wunderground v.1.15,2013-04-29 07:21:00,
2013-04-29 03:22:00,43.9,41.2,30.25,WSW,249,0.0,0.0,90,0.00,,,0.00,Wunderground v.1.15,2013-04-29 07:22:00,
2013-04-29 03:24:00,43.8,41.1,30.25,WSW,249,0.0,0.0,90,0.00,,,0.00,Wunderground v.1.15,2013-04-29 07:24:00,
2013-04-29 03:25:00,43.9,41.2,30.25,WSW,249,0.0,0.0,90,0.00,,,0.00,Wunderground v.1.15,2013-04-29 07:25:00,
2013-04-29 03:26:00,43.8,41.1,30.25,WSW,249,0.0,0.0,90,0.00,,,0.00,Wunderground v.1.15,2013-04-29 07:26:00,
2013-04-29 03:27:00,43.9,41.2,30.25,WSW,249,0.0,0.0,90,0.00,,,0.00,Wunderground v.1.15,2013-04-29 07:27:00,
2013-04-29 03:29:00,43.9,41.2,30.25,WSW,248,0.0,1.0,90,0.00,,,0.00,Wunderground v.1.15,2013-04-29 07:29:00,
2013-04-29 03:31:00,43.9,40.9,30.25,WSW,248,0.0,0.0,89,0.00,,,0.00,Wunderground v.1.15,2013-04-29 07:31:00,
2013-04-29 03:32:00,43.9,40.9,30.25,WSW,249,0.0,0.0,89,0.00,,,0.00,Wunderground v.1.15,2013-04-29 07:32:00,
2013-04-29 03:34:00,44.0,41.0,30.25,WSW,249,0.0,0.0,89,0.00,,,0.00,Wunderground v.1.15,2013-04-29 07:34:00,
2013-04-29 03:36:00,44.0,41.0,30.25,WSW,249,0.0,0.0,89,0.00,,,0.00,Wunderground v.1.15,2013-04-29 07:36:00,
2013-04-29 03:37:00,44.0,41.0,30.25,WSW,249,0.0,0.0,89,0.00,,,0.00,Wunderground v.1.15,2013-04-29 07:37:00,
2013-04-29 03:39:00,44.0,41.0,30.25,WSW,248,0.0,0.0,89,0.00,,,0.00,Wunderground v.1.15,2013-04-29 07:39:00,
2013-04-29 03:41:00,44.0,41.0,30.25,WSW,249,0.0,0.0,89,0.00,,,0.00,Wunderground v.1.15,2013-04-29 07:41:00,
2013-04-29 03:42:00,44.1,41.1,30.25,WSW,249,0.0,0.0,89,0.00,,,0.00,Wunderground v.1.15,2013-04-29 07:42:00,
2013-04-29 03:43:00,44.1,41.1,30.25,WSW,249,0.0,0.0,89,0.00,,,0.00,Wunderground v.1.15,2013-04-29 07:43:00,
2013-04-29 03:45:00,44.1,41.1,30.25,WSW,248,0.0,0.0,89,0.00,,,0.00,Wunderground v.1.15,2013-04-29 07:45:00,
2013-04-29 03:46:00,44.1,41.1,30.25,WSW,249,0.0,0.0,89,0.00,,,0.00,Wunderground v.1.15,2013-04-29 07:46:00,
2013-04-29 03:47:00,44.1,41.1,30.25,WSW,249,0.0,0.0,89,0.00,,,0.00,Wunderground v.1.15,2013-04-29 07:47:00,
2013-04-29 03:48:00,44.1,41.1,30.25,WSW,249,0.0,0.0,89,0.00,,,0.00,Wunderground v.1.15,2013-04-29 07:48:00,
2013-04-29 03:50:00,44.2,41.2,30.25,WSW,247,1.0,1.0,89,0.00,,,0.00,Wunderground v.1.15,2013-04-29 07:50:00,
2013-04-29 03:52:00,44.2,41.2,30.25,WSW,249,0.0,1.0,89,0.00,,,0.00,Wunderground v.1.15,2013-04-29 07:52:00,
2013-04-29 03:53:00,44.3,41.3,30.25,WSW,247,1.0,1.0,89,0.00,,,0.00,Wunderground v.1.15,2013-04-29 07:53:00,
2013-04-29 03:55:00,44.3,41.3,30.25,WSW,249,0.0,1.0,89,0.00,,,0.00,Wunderground v.1.15,2013-04-29 07:55:00,
2013-04-29 03:56:00,44.3,41.3,30.25,WSW,248,0.0,1.0,89,0.00,,,0.00,Wunderground v.1.15,2013-04-29 07:56:00,
2013-04-29 03:57:00,44.3,41.3,30.25,WSW,248,0.0,1.0,89,0.00,,,0.00,Wunderground v.1.15,2013-04-29 07:57:00,
2013-04-29 03:58:00,44.3,41.3,30.25,WSW,247,0.0,1.0,89,0.00,,,0.00,Wunderground v.1.15,2013-04-29 07:58:00,
2013-04-29 04:01:00,44.3,41.3,30.25,WSW,247,0.0,0.0,89,0.00,,,0.00,Wunderground v.1.15,2013-04-29 08:01:00,
2013-04-29 04:02:00,44.3,41.3,30.25,WSW,252,0.0,0.0,89,0.00,,,0.00,Wunderground v.1.15,2013-04-29 08:02:00,
2013-04-29 04:03:00,44.3,41.3,30.25,WSW,252,0.0,0.0,89,0.00,,,0.00,Wunderground v.1.15,2013-04-29 08:03:00,
2013-04-29 04:06:00,44.3,41.3,30.25,WSW,252,0.0,0.0,89,0.00,,,0.00,Wunderground v.1.15,2013-04-29 08:06:00,
2013-04-29 04:07:00,44.3,41.3,30.25,WSW,252,0.0,0.0,89,0.00,,,0.00,Wunderground v.1.15,2013-04-29 08:07:00,
2013-04-29 04:08:00,44.3,41.3,30.25,WSW,250,0.0,0.0,89,0.00,,,0.00,Wunderground v.1.15,2013-04-29 08:08:00,
2013-04-29 04:11:00,44.3,41.3,30.25,WSW,250,0.0,0.0,89,0.00,,,0.00,Wunderground v.1.15,2013-04-29 08:11:00,
2013-04-29 04:12:00,44.3,41.3,30.26,WSW,238,1.0,1.0,89,0.00,,,0.00,Wunderground v.1.15,2013-04-29 08:12:00,
2013-04-29 04:13:00,44.3,41.3,30.25,WSW,238,0.0,1.0,89,0.00,,,0.00,Wunderground v.1.15,2013-04-29 08:13:00,
2013-04-29 04:16:00,44.3,41.3,30.26,WSW,238,0.0,1.0,89,0.00,,,0.00,Wunderground v.1.15,2013-04-29 08:16:00,
2013-04-29 04:17:00,44.3,41.3,30.26,WSW,239,0.0,1.0,89,0.00,,,0.00,Wunderground v.1.15,2013-04-29 08:17:00,
2013-04-29 04:18:00,44.3,41.3,30.26,WSW,239,0.0,1.0,89,0.00,,,0.00,Wunderground v.1.15,2013-04-29 08:18:00,
2013-04-29 04:21:00,44.3,41.3,30.26,WSW,238,0.0,0.0,89,0.00,,,0.00,Wunderground v.1.15,2013-04-29 08:21:00,
2013-04-29 04:22:00,44.3,41.3,30.26,WSW,239,0.0,0.0,89,0.00,,,0.00,Wunderground v.1.15,2013-04-29 08:22:00,
2013-04-29 04:23:00,44.3,41.3,30.26,WSW,239,0.0,0.0,89,0.00,,,0.00,Wunderground v.1.15,2013-04-29 08:23:00,
2013-04-29 04:24:00,44.3,41.3,30.26,WSW,239,0.0,0.0,89,0.00,,,0.00,Wunderground v.1.15,2013-04-29 08:24:00,
2013-04-29 04:26:00,44.2,41.2,30.26,WSW,239,0.0,0.0,89,0.00,,,0.00,Wunderground v.1.15,2013-04-29 08:26:00,
2013-04-29 04:27:00,44.2,41.2,30.26,WSW,239,0.0,0.0,89,0.00,,,0.00,Wunderground v.1.15,2013-04-29 08:27:00,
2013-04-29 04:28:00,44.1,41.4,30.26,WSW,239,0.0,0.0,90,0.00,,,0.00,Wunderground v.1.15,2013-04-29 08:28:00,
2013-04-29 04:29:00,44.1,41.4,30.26,WSW,239,0.0,0.0,90,0.00,,,0.00,Wunderground v.1.15,2013-04-29 08:29:00,
2013-04-29 04:32:00,44.0,41.3,30.26,WSW,239,0.0,0.0,90,0.00,,,0.00,Wunderground v.1.15,2013-04-29 08:32:00,
2013-04-29 04:33:00,43.9,41.2,30.26,WSW,238,0.0,0.0,90,0.00,,,0.00,Wunderground v.1.15,2013-04-29 08:33:00,
2013-04-29 04:34:00,43.9,41.2,30.26,WSW,239,0.0,0.0,90,0.00,,,0.00,Wunderground v.1.15,2013-04-29 08:34:00,
2013-04-29 04:35:00,43.9,41.2,30.26,WSW,239,0.0,0.0,90,0.00,,,0.00,Wunderground v.1.15,2013-04-29 08:35:00,
2013-04-29 04:37:00,43.8,41.1,30.26,WSW,239,0.0,0.0,90,0.00,,,0.00,Wunderground v.1.15,2013-04-29 08:37:00,
2013-04-29 04:38:00,43.7,41.0,30.26,WSW,240,0.0,0.0,90,0.00,,,0.00,Wunderground v.1.15,2013-04-29 08:38:00,
2013-04-29 04:39:00,43.7,41.0,30.26,WSW,239,0.0,0.0,90,0.00,,,0.00,Wunderground v.1.15,2013-04-29 08:39:00,
2013-04-29 04:40:00,43.7,41.0,30.26,WSW,239,0.0,0.0,90,0.00,,,0.00,Wunderground v.1.15,2013-04-29 08:40:00,
2013-04-29 04:42:00,43.5,40.8,30.26,WSW,238,0.0,0.0,90,0.00,,,0.00,Wunderground v.1.15,2013-04-29 08:42:00,
2013-04-29 04:43:00,43.5,40.8,30.26,WSW,239,0.0,0.0,90,0.00,,,0.00,Wunderground v.1.15,2013-04-29 08:43:00,
2013-04-29 04:44:00,43.5,40.8,30.26,WSW,239,0.0,0.0,90,0.00,,,0.00,Wunderground v.1.15,2013-04-29 08:44:00,
2013-04-29 04:45:00,43.4,40.7,30.26,WSW,239,0.0,0.0,90,0.00,,,0.00,Wunderground v.1.15,2013-04-29 08:45:00,
2013-04-29 04:47:00,43.4,40.7,30.26,WSW,238,0.0,0.0,90,0.00,,,0.00,Wunderground v.1.15,2013-04-29 08:47:00,
2013-04-29 04:49:00,43.3,40.6,30.26,WSW,239,0.0,0.0,90,0.00,,,0.00,Wunderground v.1.15,2013-04-29 08:49:00,
2013-04-29 04:50:00,43.3,40.6,30.26,WSW,239,0.0,0.0,90,0.00,,,0.00,Wunderground v.1.15,2013-04-29 08:50:00,
2013-04-29 04:52:00,43.4,40.4,30.26,WSW,239,0.0,0.0,89,0.00,,,0.00,Wunderground v.1.15,2013-04-29 08:52:00,
2013-04-29 04:54:00,43.4,40.4,30.26,WSW,239,0.0,0.0,89,0.00,,,0.00,Wunderground v.1.15,2013-04-29 08:54:00,
2013-04-29 04:55:00,43.5,40.5,30.26,WSW,239,0.0,0.0,89,0.00,,,0.00,Wunderground v.1.15,2013-04-29 08:55:00,
2013-04-29 04:57:00,43.6,40.3,30.26,WSW,239,0.0,0.0,88,0.00,,,0.00,Wunderground v.1.15,2013-04-29 08:57:00,
2013-04-29 04:59:00,43.7,40.4,30.26,WSW,239,0.0,0.0,88,0.00,,,0.00,Wunderground v.1.15,2013-04-29 08:59:00,
2013-04-29 05:00:00,43.8,40.5,30.26,WSW,238,0.0,0.0,88,0.00,,,0.00,Wunderground v.1.15,2013-04-29 09:00:00,
2013-04-29 05:02:00,43.9,40.6,30.26,WSW,238,0.0,0.0,88,0.00,,,0.00,Wunderground v.1.15,2013-04-29 09:02:00,
2013-04-29 05:05:00,44.0,40.7,30.26,WSW,238,0.0,1.0,88,0.00,,,0.00,Wunderground v.1.15,2013-04-29 09:05:00,
2013-04-29 05:07:00,44.1,40.8,30.26,WSW,238,0.0,1.0,88,0.00,,,0.00,Wunderground v.1.15,2013-04-29 09:07:00,
2013-04-29 05:08:00,44.0,40.7,30.26,WSW,238,0.0,1.0,88,0.00,,,0.00,Wunderground v.1.15,2013-04-29 09:08:00,
2013-04-29 05:10:00,44.1,41.1,30.26,WSW,237,0.0,0.0,89,0.00,,,0.00,Wunderground v.1.15,2013-04-29 09:10:00,
2013-04-29 05:12:00,44.0,41.0,30.26,WSW,238,0.0,0.0,89,0.00,,,0.00,Wunderground v.1.15,2013-04-29 09:12:00,
2013-04-29 05:13:00,44.0,41.0,30.26,WSW,238,0.0,0.0,89,0.00,,,0.00,Wunderground v.1.15,2013-04-29 09:13:00,
2013-04-29 05:15:00,44.0,41.0,30.26,WSW,238,0.0,0.0,89,0.00,,,0.00,Wunderground v.1.15,2013-04-29 09:15:00,
2013-04-29 05:16:00,44.0,41.0,30.26,WSW,238,0.0,0.0,89,0.00,,,0.00,Wunderground v.1.15,2013-04-29 09:16:00,
2013-04-29 05:17:00,44.0,41.0,30.26,WSW,238,0.0,0.0,89,0.00,,,0.00,Wunderground v.1.15,2013-04-29 09:17:00,
2013-04-29 05:18:00,44.0,41.0,30.26,WSW,238,0.0,0.0,89,0.00,,,0.00,Wunderground v.1.15,2013-04-29 09:18:00,
2013-04-29 05:21:00,44.0,41.0,30.26,WSW,238,0.0,0.0,89,0.00,,,0.00,Wunderground v.1.15,2013-04-29 09:21:00,
2013-04-29 05:23:00,44.0,41.0,30.26,WSW,238,0.0,0.0,89,0.00,,,0.00,Wunderground v.1.15,2013-04-29 09:23:00,
2013-04-29 05:26:00,44.1,41.1,30.26,WSW,238,0.0,0.0,89,0.00,,,0.00,Wunderground v.1.15,2013-04-29 09:26:00,
2013-04-29 05:28:00,44.1,41.1,30.26,WSW,238,0.0,0.0,89,0.00,,,0.00,Wunderground v.1.15,2013-04-29 09:28:00,
2013-04-29 05:31:00,44.2,41.2,30.26,SW,229,0.0,1.0,89,0.00,,,0.00,Wunderground v.1.15,2013-04-29 09:31:00,
2013-04-29 05:33:00,44.2,41.2,30.26,SW,229,0.0,1.0,89,0.00,,,0.00,Wunderground v.1.15,2013-04-29 09:33:00,
2013-04-29 05:36:00,44.3,41.3,30.26,SW,229,0.0,1.0,89,0.00,,,0.00,Wunderground v.1.15,2013-04-29 09:36:00,
2013-04-29 05:38:00,44.2,41.2,30.27,SW,229,0.0,1.0,89,0.00,,,0.00,Wunderground v.1.15,2013-04-29 09:38:00,
2013-04-29 05:41:00,44.2,41.2,30.27,SW,229,0.0,0.0,89,0.00,,,0.00,Wunderground v.1.15,2013-04-29 09:41:00,
2013-04-29 05:43:00,44.1,41.1,30.27,SW,229,0.0,0.0,89,0.00,,,0.00,Wunderground v.1.15,2013-04-29 09:43:00,
2013-04-29 05:44:00,44.1,41.1,30.27,SW,229,0.0,0.0,89,0.00,,,0.00,Wunderground v.1.15,2013-04-29 09:44:00,
2013-04-29 05:46:00,44.0,41.0,30.27,SW,229,0.0,0.0,89,0.00,,,0.00,Wunderground v.1.15,2013-04-29 09:46:00,
2013-04-29 05:48:00,44.0,41.0,30.27,SW,229,0.0,0.0,89,0.00,,,0.00,Wunderground v.1.15,2013-04-29 09:48:00,
2013-04-29 05:49:00,44.0,41.0,30.27,SW,229,0.0,0.0,89,0.00,,,0.00,Wunderground v.1.15,2013-04-29 09:49:00,
2013-04-29 05:51:00,43.9,40.9,30.27,SW,229,0.0,0.0,89,0.00,,,0.00,Wunderground v.1.15,2013-04-29 09:51:00,
2013-04-29 05:54:00,43.8,41.1,30.27,SW,229,0.0,0.0,90,0.00,,,0.00,Wunderground v.1.15,2013-04-29 09:54:00,
2013-04-29 05:55:00,43.8,41.1,30.27,SW,229,0.0,0.0,90,0.00,,,0.00,Wunderground v.1.15,2013-04-29 09:55:00,
2013-04-29 05:56:00,43.8,41.1,30.27,SW,229,0.0,0.0,90,0.00,,,0.00,Wunderground v.1.15,2013-04-29 09:56:00,
2013-04-29 05:57:00,43.7,40.7,30.27,SW,229,0.0,0.0,89,0.00,,,0.00,Wunderground v.1.15,2013-04-29 09:57:00,
2013-04-29 05:59:00,43.7,40.7,30.27,SW,229,0.0,0.0,89,0.00,,,0.00,Wunderground v.1.15,2013-04-29 09:59:00,
2013-04-29 06:00:00,43.7,40.7,30.27,SW,229,0.0,0.0,89,0.00,,,0.00,Wunderground v.1.15,2013-04-29 10:00:00,
2013-04-29 06:01:00,43.7,40.7,30.27,SW,229,0.0,0.0,89,0.00,,,0.00,Wunderground v.1.15,2013-04-29 10:01:00,
2013-04-29 06:02:00,43.7,40.7,30.27,SW,229,0.0,0.0,89,0.00,,,0.00,Wunderground v.1.15,2013-04-29 10:02:00,
2013-04-29 06:04:00,43.6,40.6,30.27,SW,229,0.0,0.0,89,0.00,,,0.00,Wunderground v.1.15,2013-04-29 10:04:00,
2013-04-29 06:05:00,43.6,40.6,30.27,SW,229,0.0,0.0,89,0.00,,,0.00,Wunderground v.1.15,2013-04-29 10:05:00,
2013-04-29 06:07:00,43.5,40.8,30.27,SW,229,0.0,0.0,90,0.00,,,0.00,Wunderground v.1.15,2013-04-29 10:07:00,
2013-04-29 06:09:00,43.4,40.7,30.27,SW,229,0.0,0.0,90,0.00,,,0.00,Wunderground v.1.15,2013-04-29 10:09:00,
2013-04-29 06:10:00,43.4,40.7,30.27,SW,229,0.0,0.0,90,0.00,,,0.00,Wunderground v.1.15,2013-04-29 10:10:00,
2013-04-29 06:12:00,43.4,40.7,30.27,SW,229,0.0,0.0,90,0.00,,,0.00,Wunderground v.1.15,2013-04-29 10:12:00,
2013-04-29 06:14:00,43.4,40.7,30.27,SW,229,0.0,0.0,90,0.00,,,0.00,Wunderground v.1.15,2013-04-29 10:14:00,
2013-04-29 06:15:00,43.3,40.6,30.27,SW,229,0.0,0.0,90,0.00,,,0.00,Wunderground v.1.15,2013-04-29 10:15:00,
2013-04-29 06:17:00,43.3,40.6,30.27,SW,229,0.0,0.0,90,0.00,,,0.00,Wunderground v.1.15,2013-04-29 10:17:00,
2013-04-29 06:19:00,43.3,40.6,30.27,SW,229,0.0,0.0,90,0.00,,,0.00,Wunderground v.1.15,2013-04-29 10:19:00,
2013-04-29 06:20:00,43.3,40.6,30.27,SW,229,0.0,0.0,90,0.00,,,0.00,Wunderground v.1.15,2013-04-29 10:20:00,
2013-04-29 06:22:00,43.3,40.3,30.27,SW,229,0.0,0.0,89,0.00,,,0.00,Wunderground v.1.15,2013-04-29 10:22:00,
2013-04-29 06:23:00,43.3,40.3,30.27,SW,229,0.0,0.0,89,0.00,,,0.00,Wunderground v.1.15,2013-04-29 10:23:00,
2013-04-29 06:25:00,43.3,40.3,30.27,SW,229,0.0,0.0,89,0.00,,,0.00,Wunderground v.1.15,2013-04-29 10:25:00,
2013-04-29 06:27:00,43.4,40.4,30.27,SW,229,0.0,0.0,89,0.00,,,0.00,Wunderground v.1.15,2013-04-29 10:27:00,
2013-04-29 06:28:00,43.4,40.4,30.27,SW,229,0.0,0.0,89,0.00,,,0.00,Wunderground v.1.15,2013-04-29 10:28:00,
2013-04-29 06:30:00,43.5,40.5,30.27,SW,233,0.0,0.0,89,0.00,,,0.00,Wunderground v.1.15,2013-04-29 10:30:00,
2013-04-29 06:32:00,43.6,40.6,30.28,SW,232,0.0,0.0,89,0.00,,,0.00,Wunderground v.1.15,2013-04-29 10:32:00,
2013-04-29 06:33:00,43.6,40.6,30.28,SW,232,0.0,0.0,89,0.00,,,0.00,Wunderground v.1.15,2013-04-29 10:33:00,
2013-04-29 06:35:00,43.7,40.7,30.27,SW,232,0.0,1.0,89,0.00,,,0.00,Wunderground v.1.15,2013-04-29 10:35:00,
2013-04-29 06:37:00,43.9,40.6,30.28,SW,232,0.0,1.0,88,0.00,,,0.00,Wunderground v.1.15,2013-04-29 10:37:00,
2013-04-29 06:38:00,43.9,40.6,30.27,SW,231,0.0,1.0,88,0.00,,,0.00,Wunderground v.1.15,2013-04-29 10:38:00,
2013-04-29 06:40:00,44.0,41.0,30.28,SW,232,0.0,0.0,89,0.00,,,0.00,Wunderground v.1.15,2013-04-29 10:40:00,
2013-04-29 06:43:00,44.0,41.0,30.28,SW,231,0.0,0.0,89,0.00,,,0.00,Wunderground v.1.15,2013-04-29 10:43:00,
2013-04-29 06:45:00,44.0,41.0,30.28,SW,232,0.0,0.0,89,0.00,,,0.00,Wunderground v.1.15,2013-04-29 10:45:00,
2013-04-29 06:46:00,44.0,41.0,30.28,SW,232,0.0,0.0,89,0.00,,,0.00,Wunderground v.1.15,2013-04-29 10:46:00,
2013-04-29 06:48:00,43.9,40.9,30.28,SW,231,0.0,0.0,89,0.00,,,0.00,Wunderground v.1.15,2013-04-29 10:48:00,
2013-04-29 06:49:00,43.9,40.9,30.28,SW,232,0.0,0.0,89,0.00,,,0.00,Wunderground v.1.15,2013-04-29 10:49:00,
2013-04-29 06:50:00,43.9,40.9,30.28,SW,231,0.0,0.0,89,0.00,,,0.00,Wunderground v.1.15,2013-04-29 10:50:00,
2013-04-29 06:51:00,43.9,40.9,30.28,SW,232,0.0,0.0,89,0.00,,,0.00,Wunderground v.1.15,2013-04-29 10:51:00,
2013-04-29 06:53:00,43.8,40.8,30.28,SW,231,0.0,0.0,89,0.00,,,0.00,Wunderground v.1.15,2013-04-29 10:53:00,
2013-04-29 06:54:00,43.8,41.1,30.28,SW,231,0.0,0.0,90,0.00,,,0.00,Wunderground v.1.15,2013-04-29 10:54:00,
2013-04-29 06:56:00,43.8,40.8,30.28,SW,232,0.0,0.0,89,0.00,,,0.00,Wunderground v.1.15,2013-04-29 10:56:00,
2013-04-29 06:58:00,43.8,40.8,30.28,SW,231,0.0,0.0,89,0.00,,,0.00,Wunderground v.1.15,2013-04-29 10:58:00,
2013-04-29 06:59:00,43.8,40.8,30.28,SW,231,0.0,0.0,89,0.00,,,0.00,Wunderground v.1.15,2013-04-29 10:59:00,
2013-04-29 07:01:00,43.9,40.9,30.28,SW,230,0.0,0.0,89,0.00,,,0.00,Wunderground v.1.15,2013-04-29 11:01:00,
2013-04-29 07:03:00,44.0,41.0,30.28,SW,231,0.0,0.0,89,0.00,,,0.00,Wunderground v.1.15,2013-04-29 11:03:00,
2013-04-29 07:04:00,44.0,41.0,30.28,SW,231,0.0,0.0,89,0.00,,,0.00,Wunderground v.1.15,2013-04-29 11:04:00,
2013-04-29 07:06:00,44.1,41.1,30.28,SW,232,0.0,0.0,89,0.00,,,0.00,Wunderground v.1.15,2013-04-29 11:06:00,
2013-04-29 07:09:00,44.3,41.3,30.28,SW,232,0.0,0.0,89,0.00,,,0.00,Wunderground v.1.15,2013-04-29 11:09:00,
2013-04-29 07:11:00,44.4,41.4,30.28,SW,231,0.0,0.0,89,0.00,,,0.00,Wunderground v.1.15,2013-04-29 11:11:00,
2013-04-29 07:14:00,44.5,41.5,30.29,SW,231,0.0,0.0,89,0.00,,,0.00,Wunderground v.1.15,2013-04-29 11:14:00,
2013-04-29 07:16:00,44.7,41.4,30.29,SW,231,0.0,0.0,88,0.00,,,0.00,Wunderground v.1.15,2013-04-29 11:16:00,
2013-04-29 07:17:00,44.8,41.5,30.29,SW,231,0.0,0.0,88,0.00,,,0.00,Wunderground v.1.15,2013-04-29 11:17:00,
2013-04-29 07:19:00,44.9,41.6,30.29,SW,231,0.0,0.0,88,0.00,,,0.00,Wunderground v.1.15,2013-04-29 11:19:00,
2013-04-29 07:21:00,45.2,41.9,30.29,SW,232,0.0,1.0,88,0.00,,,0.00,Wunderground v.1.15,2013-04-29 11:21:00,
2013-04-29 07:22:00,45.2,41.9,30.29,SW,231,0.0,1.0,88,0.00,,,0.00,Wunderground v.1.15,2013-04-29 11:22:00,
2013-04-29 07:24:00,45.4,42.1,30.29,SW,233,0.0,1.0,88,0.00,,,0.00,Wunderground v.1.15,2013-04-29 11:24:00,
2013-04-29 07:25:00,45.5,42.2,30.29,SW,231,0.0,1.0,88,0.00,,,0.00,Wunderground v.1.15,2013-04-29 11:25:00,
2013-04-29 07:27:00,45.7,42.3,30.29,SW,231,0.0,1.0,88,0.00,,,0.00,Wunderground v.1.15,2013-04-29 11:27:00,
2013-04-29 07:29:00,45.9,42.5,30.29,SW,231,0.0,1.0,88,0.00,,,0.00,Wunderground v.1.15,2013-04-29 11:29:00,
2013-04-29 07:30:00,46.0,42.6,30.29,SW,231,0.0,0.0,88,0.00,,,0.00,Wunderground v.1.15,2013-04-29 11:30:00,
2013-04-29 07:32:00,46.2,42.8,30.29,WSW,240,1.0,1.0,88,0.00,,,0.00,Wunderground v.1.15,2013-04-29 11:32:00,
2013-04-29 07:35:00,46.4,43.0,30.29,WSW,242,0.0,1.0,88,0.00,,,0.00,Wunderground v.1.15,2013-04-29 11:35:00,
2013-04-29 07:36:00,46.5,43.1,30.29,WSW,242,0.0,1.0,88,0.00,,,0.00,Wunderground v.1.15,2013-04-29 11:36:00,
2013-04-29 07:37:00,46.5,43.1,30.29,WSW,242,0.0,1.0,88,0.00,,,0.00,Wunderground v.1.15,2013-04-29 11:37:00,
2013-04-29 07:38:00,46.6,43.2,30.29,WSW,242,0.0,1.0,88,0.00,,,0.00,Wunderground v.1.15,2013-04-29 11:38:00,
2013-04-29 07:40:00,46.7,43.3,30.29,WSW,239,0.0,0.0,88,0.00,,,0.00,Wunderground v.1.15,2013-04-29 11:40:00,
2013-04-29 07:41:00,46.8,43.7,30.29,WSW,240,0.0,1.0,89,0.00,,,0.00,Wunderground v.1.15,2013-04-29 11:41:00,
2013-04-29 07:42:00,46.9,43.8,30.29,WSW,246,0.0,1.0,89,0.00,,,0.00,Wunderground v.1.15,2013-04-29 11:42:00,
2013-04-29 07:43:00,46.9,43.8,30.29,WSW,246,0.0,1.0,89,0.00,,,0.00,Wunderground v.1.15,2013-04-29 11:43:00,
2013-04-29 07:45:00,47.1,44.0,30.29,WSW,246,0.0,1.0,89,0.00,,,0.00,Wunderground v.1.15,2013-04-29 11:45:00,
2013-04-29 07:47:00,47.2,44.1,30.29,WSW,246,0.0,1.0,89,0.00,,,0.00,Wunderground v.1.15,2013-04-29 11:47:00,
2013-04-29 07:48:00,47.3,44.2,30.29,WSW,245,0.0,1.0,89,0.00,,,0.00,Wunderground v.1.15,2013-04-29 11:48:00,
2013-04-29 07:50:00,47.6,44.5,30.29,WSW,246,0.0,0.0,89,0.00,,,0.00,Wunderground v.1.15,2013-04-29 11:50:00,
2013-04-29 07:51:00,47.6,44.5,30.29,WSW,246,0.0,1.0,89,0.00,,,0.00,Wunderground v.1.15,2013-04-29 11:51:00,
2013-04-29 07:52:00,47.8,44.7,30.29,WSW,248,0.0,1.0,89,0.00,,,0.00,Wunderground v.1.15,2013-04-29 11:52:00,
2013-04-29 07:53:00,47.9,44.8,30.29,WSW,247,0.0,1.0,89,0.00,,,0.00,Wunderground v.1.15,2013-04-29 11:53:00,
2013-04-29 07:55:00,48.1,45.0,30.29,SSW,197,0.0,1.0,89,0.00,,,0.00,Wunderground v.1.15,2013-04-29 11:55:00,
2013-04-29 07:56:00,48.2,45.1,30.29,SSW,198,0.0,1.0,89,0.00,,,0.00,Wunderground v.1.15,2013-04-29 11:56:00,
2013-04-29 07:57:00,48.3,45.5,30.29,WSW,245,1.0,1.0,90,0.00,,,0.00,Wunderground v.1.15,2013-04-29 11:57:00,
2013-04-29 07:58:00,48.4,45.6,30.29,WSW,244,0.0,1.0,90,0.00,,,0.00,Wunderground v.1.15,2013-04-29 11:58:00,
2013-04-29 08:00:00,48.6,45.8,30.29,SW,231,2.0,2.0,90,0.00,,,0.00,Wunderground v.1.15,2013-04-29 12:00:00,
2013-04-29 08:01:00,48.6,45.8,30.29,WSW,240,2.0,2.0,90,0.00,,,0.00,Wunderground v.1.15,2013-04-29 12:01:00,
2013-04-29 08:02:00,48.8,46.0,30.29,WSW,254,1.0,2.0,90,0.00,,,0.00,Wunderground v.1.15,2013-04-29 12:02:00,
2013-04-29 08:03:00,48.8,46.0,30.29,SSW,201,1.0,2.0,90,0.00,,,0.00,Wunderground v.1.15,2013-04-29 12:03:00,
2013-04-29 08:05:00,49.0,46.2,30.29,WSW,239,1.0,2.0,90,0.00,,,0.00,Wunderground v.1.15,2013-04-29 12:05:00,
2013-04-29 08:06:00,49.0,46.5,30.29,SSW,204,2.0,3.0,91,0.00,,,0.00,Wunderground v.1.15,2013-04-29 12:06:00,
2013-04-29 08:07:00,49.1,46.3,30.29,West,259,0.0,3.0,90,0.00,,,0.00,Wunderground v.1.15,2013-04-29 12:07:00,
2013-04-29 08:08:00,49.1,46.3,30.29,SW,225,1.0,3.0,90,0.00,,,0.00,Wunderground v.1.15,2013-04-29 12:08:00,
2013-04-29 08:10:00,49.2,46.4,30.29,SSW,204,0.0,2.0,90,0.00,,,0.00,Wunderground v.1.15,2013-04-29 12:10:00,
2013-04-29 08:11:00,49.2,46.4,30.29,WSW,240,0.0,2.0,90,0.00,,,0.00,Wunderground v.1.15,2013-04-29 12:11:00,
2013-04-29 08:13:00,49.3,46.2,30.29,SW,226,3.0,3.0,89,0.00,,,0.00,Wunderground v.1.15,2013-04-29 12:13:00,
2013-04-29 08:14:00,49.3,46.2,30.29,SW,220,1.0,3.0,89,0.00,,,0.00,Wunderground v.1.15,2013-04-29 12:14:00,
2013-04-29 08:15:00,49.4,46.3,30.29,SW,228,2.0,3.0,89,0.00,,,0.00,Wunderground v.1.15,2013-04-29 12:15:00,
2013-04-29 08:16:00,49.5,46.4,30.29,SSW,212,0.0,3.0,89,0.00,,,0.00,Wunderground v.1.15,2013-04-29 12:16:00,
2013-04-29 08:18:00,49.7,46.6,30.29,WSW,252,0.0,3.0,89,0.00,,,0.00,Wunderground v.1.15,2013-04-29 12:18:00,
2013-04-29 08:19:00,49.9,46.8,30.29,WSW,252,1.0,3.0,89,0.00,,,0.00,Wunderground v.1.15,2013-04-29 12:19:00,
2013-04-29 08:20:00,50.1,47.0,30.29,WSW,252,0.0,1.0,89,0.00,,,0.00,Wunderground v.1.15,2013-04-29 12:20:00,
2013-04-29 08:21:00,50.2,47.1,30.29,West,269,1.0,2.0,89,0.00,,,0.00,Wunderground v.1.15,2013-04-29 12:21:00,
2013-04-29 08:23:00,50.6,47.5,30.29,WSW,239,2.0,2.0,89,0.00,,,0.00,Wunderground v.1.15,2013-04-29 12:23:00,
2013-04-29 08:24:00,50.8,47.7,30.29,WSW,250,2.0,2.0,89,0.00,,,0.00,Wunderground v.1.15,2013-04-29 12:24:00,
2013-04-29 08:25:00,50.9,47.2,30.29,SW,226,3.0,4.0,87,0.00,,,0.00,Wunderground v.1.15,2013-04-29 12:25:00,
2013-04-29 08:26:00,51.0,47.0,30.29,WSW,253,0.0,4.0,86,0.00,,,0.00,Wunderground v.1.15,2013-04-29 12:26:00,
2013-04-29 08:28:00,51.2,47.5,30.29,West,260,0.0,4.0,87,0.00,,,0.00,Wunderground v.1.15,2013-04-29 12:28:00,
2013-04-29 08:29:00,51.3,47.6,30.29,SSW,210,0.0,4.0,87,0.00,,,0.00,Wunderground v.1.15,2013-04-29 12:29:00,
2013-04-29 08:30:00,51.6,47.5,30.29,WSW,248,0.0,2.0,86,0.00,,,0.00,Wunderground v.1.15,2013-04-29 12:30:00,
2013-04-29 08:31:00,51.7,47.6,30.29,WNW,288,2.0,2.0,86,0.00,,,0.00,Wunderground v.1.15,2013-04-29 12:31:00,
2013-04-29 08:34:00,52.0,47.9,30.29,SW,225,0.0,3.0,86,0.00,,,0.00,Wunderground v.1.15,2013-04-29 12:34:00,
2013-04-29 08:35:00,52.2,47.5,30.29,NW,320,1.0,3.0,84,0.00,,,0.00,Wunderground v.1.15,2013-04-29 12:35:00,
2013-04-29 08:36:00,52.2,47.5,30.29,NW,320,0.0,3.0,84,0.00,,,0.00,Wunderground v.1.15,2013-04-29 12:36:00,
2013-04-29 08:37:00,52.4,48.0,30.29,West,273,0.0,3.0,85,0.00,,,0.00,Wunderground v.1.15,2013-04-29 12:37:00,
2013-04-29 08:39:00,52.6,48.2,30.29,SW,231,1.0,3.0,85,0.00,,,0.00,Wunderground v.1.15,2013-04-29 12:39:00,
2013-04-29 08:40:00,52.7,48.0,30.29,NW,316,0.0,0.0,84,0.00,,,0.00,Wunderground v.1.15,2013-04-29 12:40:00,
2013-04-29 08:41:00,52.8,47.8,30.29,NW,305,0.0,0.0,83,0.00,,,0.00,Wunderground v.1.15,2013-04-29 12:41:00,
2013-04-29 08:42:00,52.9,47.9,30.29,West,276,1.0,1.0,83,0.00,,,0.00,Wunderground v.1.15,2013-04-29 12:42:00,
2013-04-29 08:44:00,53.1,47.7,30.29,WNW,298,0.0,1.0,82,0.00,,,0.00,Wunderground v.1.15,2013-04-29 12:44:00,
2013-04-29 08:45:00,53.1,47.7,30.29,SW,231,2.0,2.0,82,0.00,,,0.00,Wunderground v.1.15,2013-04-29 12:45:00,
2013-04-29 08:46:00,53.1,47.4,30.29,WSW,239,0.0,2.0,81,0.00,,,0.00,Wunderground v.1.15,2013-04-29 12:46:00,
2013-04-29 08:47:00,53.2,47.8,30.29,WSW,242,0.0,2.0,82,0.00,,,0.00,Wunderground v.1.15,2013-04-29 12:47:00,
2013-04-29 08:49:00,53.3,47.6,30.29,South,190,1.0,2.0,81,0.00,,,0.00,Wunderground v.1.15,2013-04-29 12:49:00,
2013-04-29 08:50:00,53.4,47.7,30.29,WSW,245,0.0,2.0,81,0.00,,,0.00,Wunderground v.1.15,2013-04-29 12:50:00,
2013-04-29 08:52:00,53.5,47.8,30.29,West,273,0.0,2.0,81,0.00,,,0.00,Wunderground v.1.15,2013-04-29 12:52:00,
2013-04-29 08:54:00,53.6,47.6,30.29,SW,222,1.0,4.0,80,0.00,,,0.00,Wunderground v.1.15,2013-04-29 12:54:00,
2013-04-29 08:55:00,53.7,47.7,30.29,South,177,2.0,4.0,80,0.00,,,0.00,Wunderground v.1.15,2013-04-29 12:55:00,
2013-04-29 08:57:00,53.8,47.4,30.29,SW,229,2.0,4.0,79,0.00,,,0.00,Wunderground v.1.15,2013-04-29 12:57:00,
2013-04-29 08:59:00,53.9,47.5,30.29,SW,224,0.0,4.0,79,0.00,,,0.00,Wunderground v.1.15,2013-04-29 12:59:00,
2013-04-29 09:00:00,54.0,48.0,30.29,WSW,257,0.0,1.0,80,0.00,,,0.00,Wunderground v.1.15,2013-04-29 13:00:00,
2013-04-29 09:01:00,54.1,47.7,30.29,WSW,257,0.0,1.0,79,0.00,,,0.00,Wunderground v.1.15,2013-04-29 13:01:00,
2013-04-29 09:02:00,54.2,47.8,30.29,WSW,252,0.0,1.0,79,0.00,,,0.00,Wunderground v.1.15,2013-04-29 13:02:00,
2013-04-29 09:03:00,54.2,47.5,30.29,West,276,0.0,1.0,78,0.00,,,0.00,Wunderground v.1.15,2013-04-29 13:03:00,
2013-04-29 09:04:00,54.4,48.0,30.29,West,276,0.0,1.0,79,0.00,,,0.00,Wunderground v.1.15,2013-04-29 13:04:00,
2013-04-29 09:05:00,54.4,48.0,30.29,NW,324,1.0,1.0,79,0.00,,,0.00,Wunderground v.1.15,2013-04-29 13:05:00,
2013-04-29 09:06:00,54.5,48.1,30.29,NW,315,0.0,1.0,79,0.00,,,0.00,Wunderground v.1.15,2013-04-29 13:06:00,
2013-04-29 09:07:00,54.6,47.9,30.29,WNW,302,0.0,1.0,78,0.00,,,0.00,Wunderground v.1.15,2013-04-29 13:07:00,
2013-04-29 09:08:00,54.7,48.0,30.29,WNW,302,0.0,1.0,78,0.00,,,0.00,Wunderground v.1.15,2013-04-29 13:08:00,
2013-04-29 09:10:00,54.9,48.2,30.29,SSW,198,2.0,2.0,78,0.00,,,0.00,Wunderground v.1.15,2013-04-29 13:10:00,
2013-04-29 09:11:00,55.0,48.3,30.29,SSE,153,0.0,3.0,78,0.00,,,0.00,Wunderground v.1.15,2013-04-29 13:11:00,
2013-04-29 09:12:00,55.2,48.1,30.29,South,170,0.0,3.0,77,0.00,,,0.00,Wunderground v.1.15,2013-04-29 13:12:00,
2013-04-29 09:13:00,55.3,48.2,30.29,North,360,1.0,3.0,77,0.00,,,0.00,Wunderground v.1.15,2013-04-29 13:13:00,
2013-04-29 09:15:00,55.6,48.5,30.29,SSW,196,0.0,3.0,77,0.00,,,0.00,Wunderground v.1.15,2013-04-29 13:15:00,
2013-04-29 09:16:00,55.7,48.2,30.29,WSW,250,2.0,3.0,76,0.00,,,0.00,Wunderground v.1.15,2013-04-29 13:16:00,
2013-04-29 09:17:00,55.9,48.4,30.29,SSW,200,2.0,3.0,76,0.00,,,0.00,Wunderground v.1.15,2013-04-29 13:17:00,
2013-04-29 09:18:00,56.0,48.5,30.29,SSW,198,1.0,3.0,76,0.00,,,0.00,Wunderground v.1.15,2013-04-29 13:18:00,
2013-04-29 09:20:00,56.2,48.0,30.29,SW,218,1.0,2.0,74,0.00,,,0.00,Wunderground v.1.15,2013-04-29 13:20:00,
2013-04-29 09:21:00,56.2,48.0,30.29,West,276,0.0,2.0,74,0.00,,,0.00,Wunderground v.1.15,2013-04-29 13:21:00,
2013-04-29 09:22:00,56.4,48.2,30.29,SW,233,0.0,2.0,74,0.00,,,0.00,Wunderground v.1.15,2013-04-29 13:22:00,
2013-04-29 09:23:00,56.5,48.3,30.29,NW,304,0.0,2.0,74,0.00,,,0.00,Wunderground v.1.15,2013-04-29 13:23:00,
2013-04-29 09:25:00,56.8,48.6,30.29,West,276,0.0,3.0,74,0.00,,,0.00,Wunderground v.1.15,2013-04-29 13:25:00,
2013-04-29 09:26:00,56.9,48.3,30.28,West,276,0.0,3.0,73,0.00,,,0.00,Wunderground v.1.15,2013-04-29 13:26:00,
2013-04-29 09:28:00,57.1,47.8,30.28,SW,219,2.0,4.0,71,0.00,,,0.00,Wunderground v.1.15,2013-04-29 13:28:00,
2013-04-29 09:30:00,57.3,48.7,30.28,SSW,194,2.0,3.0,73,0.00,,,0.00,Wunderground v.1.15,2013-04-29 13:30:00,
2013-04-29 09:31:00,57.4,48.1,30.28,SSW,194,0.0,3.0,71,0.00,,,0.00,Wunderground v.1.15,2013-04-29 13:31:00,
2013-04-29 09:33:00,57.7,48.0,30.28,SW,236,0.0,3.0,70,0.00,,,0.00,Wunderground v.1.15,2013-04-29 13:33:00,
2013-04-29 09:34:00,57.7,48.0,30.28,NW,311,0.0,3.0,70,0.00,,,0.00,Wunderground v.1.15,2013-04-29 13:34:00,
2013-04-29 09:35:00,58.0,48.3,30.28,South,190,2.0,3.0,70,0.00,,,0.00,Wunderground v.1.15,2013-04-29 13:35:00,
2013-04-29 09:36:00,58.1,47.6,30.28,SW,233,4.0,5.0,68,0.00,,,0.00,Wunderground v.1.15,2013-04-29 13:36:00,
2013-04-29 09:37:00,58.0,47.1,30.28,SSW,210,4.0,5.0,67,0.00,,,0.00,Wunderground v.1.15,2013-04-29 13:37:00,
2013-04-29 09:38:00,58.0,46.7,30.28,WSW,243,3.0,6.0,66,0.00,,,0.00,Wunderground v.1.15,2013-04-29 13:38:00,
2013-04-29 09:39:00,58.0,47.1,30.28,SSW,205,3.0,6.0,67,0.00,,,0.00,Wunderground v.1.15,2013-04-29 13:39:00,
2013-04-29 09:41:00,58.0,46.7,30.28,SSW,194,1.0,3.0,66,0.00,,,0.00,Wunderground v.1.15,2013-04-29 13:41:00,
2013-04-29 09:42:00,58.0,47.1,30.28,West,280,0.0,3.0,67,0.00,,,0.00,Wunderground v.1.15,2013-04-29 13:42:00,
2013-04-29 09:43:00,58.1,47.2,30.28,NW,316,1.0,4.0,67,0.00,,,0.00,Wunderground v.1.15,2013-04-29 13:43:00,
2013-04-29 09:44:00,58.2,46.9,30.28,SW,219,0.0,4.0,66,0.00,,,0.00,Wunderground v.1.15,2013-04-29 13:44:00,
2013-04-29 09:46:00,58.4,47.5,30.28,SW,222,1.0,4.0,67,0.00,,,0.00,Wunderground v.1.15,2013-04-29 13:46:00,
2013-04-29 09:47:00,58.6,47.3,30.28,West,266,0.0,4.0,66,0.00,,,0.00,Wunderground v.1.15,2013-04-29 13:47:00,
2013-04-29 09:48:00,58.8,45.8,30.28,WSW,245,1.0,4.0,62,0.00,,,0.00,Wunderground v.1.15,2013-04-29 13:48:00,
2013-04-29 09:49:00,59.0,46.4,30.28,SW,224,3.0,4.0,63,0.00,,,0.00,Wunderground v.1.15,2013-04-29 13:49:00,
2013-04-29 09:51:00,59.4,47.6,30.28,West,266,0.0,2.0,65,0.00,,,0.00,Wunderground v.1.15,2013-04-29 13:51:00,
2013-04-29 09:52:00,59.7,47.9,30.28,South,191,2.0,2.0,65,0.00,,,0.00,Wunderground v.1.15,2013-04-29 13:52:00,
2013-04-29 09:53:00,59.9,46.0,30.28,SW,219,1.0,4.0,60,0.00,,,0.00,Wunderground v.1.15,2013-04-29 13:53:00,
2013-04-29 09:54:00,60.1,45.7,30.28,SW,218,5.0,7.0,59,0.00,,,0.00,Wunderground v.1.15,2013-04-29 13:54:00,
2013-04-29 09:56:00,60.1,45.3,30.28,SSW,207,3.0,7.0,58,0.00,,,0.00,Wunderground v.1.15,2013-04-29 13:56:00,
2013-04-29 09:58:00,60.1,44.8,30.28,SW,221,2.0,7.0,57,0.00,,,0.00,Wunderground v.1.15,2013-04-29 13:58:00,
2013-04-29 10:00:00,60.1,45.7,30.28,WNW,288,0.0,2.0,59,0.00,,,0.00,Wunderground v.1.15,2013-04-29 14:00:00,
2013-04-29 10:01:00,60.3,45.5,30.28,SSW,210,2.0,4.0,58,0.00,,,0.00,Wunderground v.1.15,2013-04-29 14:01:00,
2013-04-29 10:03:00,60.4,46.0,30.28,North,357,1.0,4.0,59,0.00,,,0.00,Wunderground v.1.15,2013-04-29 14:03:00,
2013-04-29 10:04:00,60.5,46.1,30.28,West,271,1.0,4.0,59,0.00,,,0.00,Wunderground v.1.15,2013-04-29 14:04:00,
2013-04-29 10:05:00,60.7,45.4,30.28,SW,233,3.0,4.0,57,0.00,,,0.00,Wunderground v.1.15,2013-04-29 14:05:00,
2013-04-29 10:06:00,60.8,45.5,30.28,SW,224,2.0,4.0,57,0.00,,,0.00,Wunderground v.1.15,2013-04-29 14:06:00,
2013-04-29 10:08:00,60.9,44.1,30.28,South,184,1.0,5.0,54,0.00,,,0.00,Wunderground v.1.15,2013-04-29 14:08:00,
2013-04-29 10:09:00,61.0,44.7,30.28,West,266,0.0,5.0,55,0.00,,,0.00,Wunderground v.1.15,2013-04-29 14:09:00,
2013-04-29 10:10:00,61.0,45.2,30.28,WSW,257,4.0,4.0,56,0.00,,,0.00,Wunderground v.1.15,2013-04-29 14:10:00,
2013-04-29 10:11:00,61.0,43.2,30.28,WSW,240,2.0,5.0,52,0.00,,,0.00,Wunderground v.1.15,2013-04-29 14:11:00,
2013-04-29 10:13:00,61.2,45.4,30.28,West,276,0.0,5.0,56,0.00,,,0.00,Wunderground v.1.15,2013-04-29 14:13:00,
2013-04-29 10:14:00,61.3,46.4,30.28,SSW,212,3.0,5.0,58,0.00,,,0.00,Wunderground v.1.15,2013-04-29 14:14:00,
2013-04-29 10:15:00,61.4,44.6,30.28,SE,124,2.0,5.0,54,0.00,,,0.00,Wunderground v.1.15,2013-04-29 14:15:00,
2013-04-29 10:16:00,61.4,44.1,30.28,SW,214,4.0,7.0,53,0.00,,,0.00,Wunderground v.1.15,2013-04-29 14:16:00,
2013-04-29 10:18:00,61.3,45.0,30.28,WSW,243,0.0,7.0,55,0.00,,,0.00,Wunderground v.1.15,2013-04-29 14:18:00,
2013-04-29 10:19:00,61.3,44.5,30.28,WSW,243,0.0,7.0,54,0.00,,,0.00,Wunderground v.1.15,2013-04-29 14:19:00,
2013-04-29 10:20:00,61.3,44.5,30.28,SSW,194,2.0,3.0,54,0.00,,,0.00,Wunderground v.1.15,2013-04-29 14:20:00,
2013-04-29 10:21:00,61.4,44.6,30.28,NNW,343,3.0,4.0,54,0.00,,,0.00,Wunderground v.1.15,2013-04-29 14:21:00,
2013-04-29 10:24:00,61.3,45.5,30.28,South,169,0.0,4.0,56,0.00,,,0.00,Wunderground v.1.15,2013-04-29 14:24:00,
2013-04-29 10:25:00,61.3,45.0,30.28,WSW,256,0.0,4.0,55,0.00,,,0.00,Wunderground v.1.15,2013-04-29 14:25:00,
2013-04-29 10:27:00,61.5,45.7,30.28,SSW,194,1.0,4.0,56,0.00,,,0.00,Wunderground v.1.15,2013-04-29 14:27:00,
2013-04-29 10:29:00,61.8,45.9,30.28,WSW,252,0.0,4.0,56,0.00,,,0.00,Wunderground v.1.15,2013-04-29 14:29:00,
2013-04-29 10:30:00,61.8,45.0,30.28,WSW,252,1.0,1.0,54,0.00,,,0.00,Wunderground v.1.15,2013-04-29 14:30:00,
2013-04-29 10:32:00,62.0,44.7,30.28,West,264,1.0,2.0,53,0.00,,,0.00,Wunderground v.1.15,2013-04-29 14:32:00,
2013-04-29 10:34:00,62.1,44.3,30.28,NW,307,0.0,4.0,52,0.00,,,0.00,Wunderground v.1.15,2013-04-29 14:34:00,
2013-04-29 10:35:00,62.1,44.3,30.28,WNW,288,0.0,4.0,52,0.00,,,0.00,Wunderground v.1.15,2013-04-29 14:35:00,
2013-04-29 10:36:00,62.1,43.2,30.28,SSW,194,2.0,4.0,50,0.00,,,0.00,Wunderground v.1.15,2013-04-29 14:36:00,
2013-04-29 10:38:00,62.1,42.7,30.28,WSW,248,3.0,5.0,49,0.00,,,0.00,Wunderground v.1.15,2013-04-29 14:38:00,
2013-04-29 10:39:00,62.1,43.7,30.28,SE,129,0.0,6.0,51,0.00,,,0.00,Wunderground v.1.15,2013-04-29 14:39:00,
2013-04-29 10:40:00,62.1,44.3,30.28,SE,139,0.0,1.0,52,0.00,,,0.00,Wunderground v.1.15,2013-04-29 14:40:00,
2013-04-29 10:41:00,62.1,42.7,30.28,SW,224,2.0,8.0,49,0.00,,,0.00,Wunderground v.1.15,2013-04-29 14:41:00,
2013-04-29 10:43:00,62.0,43.7,30.27,NW,319,2.0,8.0,51,0.00,,,0.00,Wunderground v.1.15,2013-04-29 14:43:00,
2013-04-29 10:44:00,62.0,44.7,30.27,NNW,343,1.0,8.0,53,0.00,,,0.00,Wunderground v.1.15,2013-04-29 14:44:00,
2013-04-29 10:45:00,62.1,46.2,30.27,North,352,1.0,8.0,56,0.00,,,0.00,Wunderground v.1.15,2013-04-29 14:45:00,
2013-04-29 10:47:00,62.1,42.7,30.27,WNW,294,0.0,8.0,49,0.00,,,0.00,Wunderground v.1.15,2013-04-29 14:47:00,
2013-04-29 10:48:00,62.1,44.3,30.27,West,261,0.0,8.0,52,0.00,,,0.00,Wunderground v.1.15,2013-04-29 14:48:00,
2013-04-29 10:49:00,62.1,42.2,30.27,SW,226,1.0,8.0,48,0.00,,,0.00,Wunderground v.1.15,2013-04-29 14:49:00,
2013-04-29 10:50:00,62.1,41.1,30.27,SW,215,5.0,5.0,46,0.00,,,0.00,Wunderground v.1.15,2013-04-29 14:50:00,
2013-04-29 10:51:00,62.1,40.5,30.28,SSW,205,4.0,8.0,45,0.00,,,0.00,Wunderground v.1.15,2013-04-29 14:51:00,
2013-04-29 10:52:00,61.9,39.7,30.27,WSW,248,2.0,10.0,44,0.00,,,0.00,Wunderground v.1.15,2013-04-29 14:52:00,
2013-04-29 10:53:00,61.8,40.2,30.27,South,190,0.0,10.0,45,0.00,,,0.00,Wunderground v.1.15,2013-04-29 14:53:00,
2013-04-29 10:54:00,61.8,41.3,30.27,SSW,204,4.0,10.0,47,0.00,,,0.00,Wunderground v.1.15,2013-04-29 14:54:00,
2013-04-29 10:55:00,61.7,40.7,30.27,West,260,0.0,10.0,46,0.00,,,0.00,Wunderground v.1.15,2013-04-29 14:55:00,
2013-04-29 10:56:00,61.7,41.3,30.27,SSW,201,5.0,10.0,47,0.00,,,0.00,Wunderground v.1.15,2013-04-29 14:56:00,
2013-04-29 10:57:00,61.7,40.7,30.27,SW,221,2.0,10.0,46,0.00,,,0.00,Wunderground v.1.15,2013-04-29 14:57:00,
2013-04-29 10:58:00,61.6,40.0,30.27,SW,224,3.0,10.0,45,0.00,,,0.00,Wunderground v.1.15,2013-04-29 14:58:00,
2013-04-29 11:00:00,61.6,39.5,30.27,West,273,3.0,10.0,44,0.00,,,0.00,Wunderground v.1.15,2013-04-29 15:00:00,
2013-04-29 11:01:00,61.5,39.4,30.27,West,259,2.0,10.0,44,0.00,,,0.00,Wunderground v.1.15,2013-04-29 15:01:00,
2013-04-29 11:02:00,61.5,39.9,30.27,SSW,197,2.0,10.0,45,0.00,,,0.00,Wunderground v.1.15,2013-04-29 15:02:00,
2013-04-29 11:03:00,61.5,39.4,30.27,WSW,243,2.0,10.0,44,0.00,,,0.00,Wunderground v.1.15,2013-04-29 15:03:00,
2013-04-29 11:05:00,61.7,40.7,30.27,West,261,5.0,10.0,46,0.00,,,0.00,Wunderground v.1.15,2013-04-29 15:05:00,
2013-04-29 11:06:00,61.9,40.3,30.27,WSW,246,1.0,10.0,45,0.00,,,0.00,Wunderground v.1.15,2013-04-29 15:06:00,
2013-04-29 11:07:00,62.1,41.6,30.27,SSW,197,3.0,10.0,47,0.00,,,0.00,Wunderground v.1.15,2013-04-29 15:07:00,
2013-04-29 11:08:00,62.3,41.2,30.27,North,357,5.0,10.0,46,0.00,,,0.00,Wunderground v.1.15,2013-04-29 15:08:00,
2013-04-29 11:10:00,62.6,43.7,30.27,West,275,3.0,4.0,50,0.00,,,0.00,Wunderground v.1.15,2013-04-29 15:10:00,
2013-04-29 11:11:00,62.7,43.8,30.27,WSW,250,5.0,5.0,50,0.00,,,0.00,Wunderground v.1.15,2013-04-29 15:11:00,
2013-04-29 11:13:00,62.8,40.5,30.27,SW,222,2.0,7.0,44,0.00,,,0.00,Wunderground v.1.15,2013-04-29 15:13:00,
2013-04-29 11:15:00,63.3,42.7,30.27,WNW,298,0.0,7.0,47,0.00,,,0.00,Wunderground v.1.15,2013-04-29 15:15:00,
2013-04-29 11:16:00,63.5,42.9,30.27,South,191,1.0,7.0,47,0.00,,,0.00,Wunderground v.1.15,2013-04-29 15:16:00,
2013-04-29 11:17:00,63.7,43.6,30.27,SW,226,2.0,7.0,48,0.00,,,0.00,Wunderground v.1.15,2013-04-29 15:17:00,
2013-04-29 11:18:00,63.9,44.4,30.27,WSW,245,3.0,7.0,49,0.00,,,0.00,Wunderground v.1.15,2013-04-29 15:18:00,
2013-04-29 11:19:00,64.0,41.6,30.27,WSW,250,5.0,7.0,44,0.00,,,0.00,Wunderground v.1.15,2013-04-29 15:19:00,
2013-04-29 11:20:00,64.1,42.3,30.27,WSW,253,8.0,9.0,45,0.00,,,0.00,Wunderground v.1.15,2013-04-29 15:20:00,
2013-04-29 11:21:00,64.1,42.3,30.27,SSW,194,5.0,9.0,45,0.00,,,0.00,Wunderground v.1.15,2013-04-29 15:21:00,
2013-04-29 11:22:00,63.9,40.3,30.27,SSE,158,2.0,10.0,42,0.00,,,0.00,Wunderground v.1.15,2013-04-29 15:22:00,
2013-04-29 11:23:00,63.9,42.7,30.27,South,170,6.0,10.0,46,0.00,,,0.00,Wunderground v.1.15,2013-04-29 15:23:00,
2013-04-29 11:24:00,63.9,41.0,30.27,SW,233,4.0,10.0,43,0.00,,,0.00,Wunderground v.1.15,2013-04-29 15:24:00,
2013-04-29 11:26:00,63.8,42.0,30.27,SSW,204,3.0,10.0,45,0.00,,,0.00,Wunderground v.1.15,2013-04-29 15:26:00,
2013-04-29 11:27:00,63.8,40.3,30.27,SSW,210,5.0,10.0,42,0.00,,,0.00,Wunderground v.1.15,2013-04-29 15:27:00,
2013-04-29 11:28:00,63.8,40.9,30.27,West,271,5.0,10.0,43,0.00,,,0.00,Wunderground v.1.15,2013-04-29 15:28:00,
2013-04-29 11:29:00,63.8,40.3,30.27,WSW,239,5.0,11.0,42,0.00,,,0.00,Wunderground v.1.15,2013-04-29 15:29:00,
2013-04-29 11:31:00,63.9,41.5,30.27,WNW,284,1.0,8.0,44,0.00,,,0.00,Wunderground v.1.15,2013-04-29 15:31:00,
2013-04-29 11:32:00,64.0,42.2,30.27,WSW,245,2.0,8.0,45,0.00,,,0.00,Wunderground v.1.15,2013-04-29 15:32:00,
2013-04-29 11:33:00,64.0,42.2,30.27,West,263,3.0,8.0,45,0.00,,,0.00,Wunderground v.1.15,2013-04-29 15:33:00,
2013-04-29 11:34:00,64.1,40.5,30.27,SW,232,0.0,8.0,42,0.00,,,0.00,Wunderground v.1.15,2013-04-29 15:34:00,
2013-04-29 11:36:00,64.3,41.3,30.27,South,169,3.0,8.0,43,0.00,,,0.00,Wunderground v.1.15,2013-04-29 15:36:00,
2013-04-29 11:37:00,64.4,42.0,30.26,SSW,198,5.0,8.0,44,0.00,,,0.00,Wunderground v.1.15,2013-04-29 15:37:00,
2013-04-29 11:38:00,64.5,42.1,30.26,SSW,206,6.0,11.0,44,0.00,,,0.00,Wunderground v.1.15,2013-04-29 15:38:00,
2013-04-29 11:39:00,64.5,41.5,30.27,West,260,5.0,12.0,43,0.00,,,0.00,Wunderground v.1.15,2013-04-29 15:39:00,
2013-04-29 11:41:00,64.5,41.5,30.26,WSW,246,6.0,10.0,43,0.00,,,0.00,Wunderground v.1.15,2013-04-29 15:41:00,
2013-04-29 11:42:00,64.5,41.5,30.26,SW,218,3.0,10.0,43,0.00,,,0.00,Wunderground v.1.15,2013-04-29 15:42:00,
2013-04-29 11:43:00,64.6,41.0,30.26,NW,320,3.0,10.0,42,0.00,,,0.00,Wunderground v.1.15,2013-04-29 15:43:00,
2013-04-29 11:45:00,64.7,41.1,30.26,SSW,211,3.0,10.0,42,0.00,,,0.00,Wunderground v.1.15,2013-04-29 15:45:00,
2013-04-29 11:47:00,64.7,41.7,30.26,WSW,255,7.0,12.0,43,0.00,,,0.00,Wunderground v.1.15,2013-04-29 15:47:00,
2013-04-29 11:48:00,64.7,39.8,30.26,SW,235,6.0,12.0,40,0.00,,,0.00,Wunderground v.1.15,2013-04-29 15:48:00,
2013-04-29 11:50:00,64.7,41.1,30.26,SW,228,5.0,6.0,42,0.00,,,0.00,Wunderground v.1.15,2013-04-29 15:50:00,
2013-04-29 11:52:00,64.7,39.8,30.26,West,259,1.0,9.0,40,0.00,,,0.00,Wunderground v.1.15,2013-04-29 15:52:00,
2013-04-29 11:53:00,64.9,39.3,30.26,SW,232,1.0,9.0,39,0.00,,,0.00,Wunderground v.1.15,2013-04-29 15:53:00,
2013-04-29 11:55:00,65.1,38.8,30.26,SW,217,2.0,9.0,38,0.00,,,0.00,Wunderground v.1.15,2013-04-29 15:55:00,
2013-04-29 11:57:00,65.2,42.1,30.26,WSW,243,3.0,9.0,43,0.00,,,0.00,Wunderground v.1.15,2013-04-29 15:57:00,
2013-04-29 11:58:00,65.4,42.3,30.26,WNW,288,0.0,9.0,43,0.00,,,0.00,Wunderground v.1.15,2013-04-29 15:58:00,
2013-04-29 11:59:00,65.5,42.4,30.26,NW,323,1.0,9.0,43,0.00,,,0.00,Wunderground v.1.15,2013-04-29 15:59:00,
2013-04-29 12:00:00,65.8,43.9,30.26,SW,224,3.0,3.0,45,0.00,,,0.00,Wunderground v.1.15,2013-04-29 16:00:00,
2013-04-29 12:02:00,65.6,39.3,30.26,WNW,285,0.0,8.0,38,0.00,,,0.00,Wunderground v.1.15,2013-04-29 16:02:00,
2013-04-29 12:03:00,65.5,41.2,30.26,WSW,243,2.0,8.0,41,0.00,,,0.00,Wunderground v.1.15,2013-04-29 16:03:00,
2013-04-29 12:04:00,65.5,41.2,30.26,WNW,290,5.0,8.0,41,0.00,,,0.00,Wunderground v.1.15,2013-04-29 16:04:00,
2013-04-29 12:05:00,65.4,41.1,30.26,NW,320,1.0,8.0,41,0.00,,,0.00,Wunderground v.1.15,2013-04-29 16:05:00,
2013-04-29 12:07:00,65.6,41.9,30.26,NE,34,1.0,8.0,42,0.00,,,0.00,Wunderground v.1.15,2013-04-29 16:07:00,
2013-04-29 12:08:00,65.7,40.1,30.26,SSW,198,2.0,8.0,39,0.00,,,0.00,Wunderground v.1.15,2013-04-29 16:08:00,
2013-04-29 12:09:00,65.7,40.1,30.26,SW,225,2.0,8.0,39,0.00,,,0.00,Wunderground v.1.15,2013-04-29 16:09:00,
2013-04-29 12:11:00,65.9,42.8,30.26,West,259,1.0,4.0,43,0.00,,,0.00,Wunderground v.1.15,2013-04-29 16:11:00,
2013-04-29 12:12:00,66.0,42.2,30.26,SW,231,5.0,5.0,42,0.00,,,0.00,Wunderground v.1.15,2013-04-29 16:12:00,
2013-04-29 12:13:00,66.0,42.2,30.26,West,263,2.0,9.0,42,0.00,,,0.00,Wunderground v.1.15,2013-04-29 16:13:00,
2013-04-29 12:14:00,66.0,41.6,30.25,SW,228,0.0,9.0,41,0.00,,,0.00,Wunderground v.1.15,2013-04-29 16:14:00,
2013-04-29 12:16:00,66.2,43.6,30.26,SSW,198,3.0,9.0,44,0.00,,,0.00,Wunderground v.1.15,2013-04-29 16:16:00,
2013-04-29 12:17:00,66.3,41.9,30.26,ENE,77,1.0,9.0,41,0.00,,,0.00,Wunderground v.1.15,2013-04-29 16:17:00,
2013-04-29 12:18:00,66.3,41.9,30.25,WSW,249,2.0,9.0,41,0.00,,,0.00,Wunderground v.1.15,2013-04-29 16:18:00,
2013-04-29 12:19:00,66.5,43.9,30.25,NNW,344,1.0,9.0,44,0.00,,,0.00,Wunderground v.1.15,2013-04-29 16:19:00,
2013-04-29 12:21:00,66.7,42.9,30.25,NW,315,1.0,6.0,42,0.00,,,0.00,Wunderground v.1.15,2013-04-29 16:21:00,
2013-04-29 12:22:00,66.8,41.7,30.25,WNW,302,3.0,7.0,40,0.00,,,0.00,Wunderground v.1.15,2013-04-29 16:22:00,
2013-04-29 12:23:00,66.8,41.0,30.25,NW,307,1.0,7.0,39,0.00,,,0.00,Wunderground v.1.15,2013-04-29 16:23:00,
2013-04-29 12:25:00,66.9,41.1,30.25,NW,320,1.0,8.0,39,0.00,,,0.00,Wunderground v.1.15,2013-04-29 16:25:00,
2013-04-29 12:26:00,67.0,43.8,30.25,NNW,347,2.0,8.0,43,0.00,,,0.00,Wunderground v.1.15,2013-04-29 16:26:00,
2013-04-29 12:28:00,67.1,40.6,30.25,NNW,333,1.0,8.0,38,0.00,,,0.00,Wunderground v.1.15,2013-04-29 16:28:00,
2013-04-29 12:30:00,66.9,42.4,30.25,WSW,258,2.0,3.0,41,0.00,,,0.00,Wunderground v.1.15,2013-04-29 16:30:00,
2013-04-29 12:31:00,66.9,43.0,30.25,WNW,284,0.0,6.0,42,0.00,,,0.00,Wunderground v.1.15,2013-04-29 16:31:00,
2013-04-29 12:33:00,67.1,40.6,30.25,SSW,198,4.0,8.0,38,0.00,,,0.00,Wunderground v.1.15,2013-04-29 16:33:00,
2013-04-29 12:34:00,67.1,40.6,30.25,NNW,333,2.0,8.0,38,0.00,,,0.00,Wunderground v.1.15,2013-04-29 16:34:00,
2013-04-29 12:35:00,67.1,39.9,30.25,NW,316,2.0,8.0,37,0.00,,,0.00,Wunderground v.1.15,2013-04-29 16:35:00,
2013-04-29 12:36:00,67.1,42.0,30.25,SW,231,4.0,8.0,40,0.00,,,0.00,Wunderground v.1.15,2013-04-29 16:36:00,
2013-04-29 12:38:00,67.1,42.0,30.25,NNW,328,2.0,8.0,40,0.00,,,0.00,Wunderground v.1.15,2013-04-29 16:38:00,
2013-04-29 12:39:00,67.1,42.0,30.25,SSW,205,0.0,8.0,40,0.00,,,0.00,Wunderground v.1.15,2013-04-29 16:39:00,
2013-04-29 12:40:00,67.1,42.6,30.25,West,270,2.0,5.0,41,0.00,,,0.00,Wunderground v.1.15,2013-04-29 16:40:00,
2013-04-29 12:41:00,67.3,44.6,30.25,WSW,249,1.0,6.0,44,0.00,,,0.00,Wunderground v.1.15,2013-04-29 16:41:00,
2013-04-29 12:43:00,67.5,42.3,30.25,West,274,2.0,7.0,40,0.00,,,0.00,Wunderground v.1.15,2013-04-29 16:43:00,
2013-04-29 12:44:00,67.5,42.3,30.25,WSW,243,4.0,7.0,40,0.00,,,0.00,Wunderground v.1.15,2013-04-29 16:44:00,
2013-04-29 12:45:00,67.5,41.0,30.25,SSW,203,3.0,7.0,38,0.00,,,0.00,Wunderground v.1.15,2013-04-29 16:45:00,
2013-04-29 12:47:00,67.3,40.8,30.25,WSW,249,3.0,7.0,38,0.00,,,0.00,Wunderground v.1.15,2013-04-29 16:47:00,
2013-04-29 12:49:00,67.1,42.6,30.25,NW,312,2.0,8.0,41,0.00,,,0.00,Wunderground v.1.15,2013-04-29 16:49:00,
2013-04-29 12:50:00,66.9,41.8,30.25,North,5,4.0,5.0,40,0.00,,,0.00,Wunderground v.1.15,2013-04-29 16:50:00,
2013-04-29 12:52:00,66.5,42.1,30.25,NW,304,3.0,7.0,41,0.00,,,0.00,Wunderground v.1.15,2013-04-29 16:52:00,
2013-04-29 12:54:00,66.2,41.8,30.25,SSW,200,1.0,7.0,41,0.00,,,0.00,Wunderground v.1.15,2013-04-29 16:54:00,
2013-04-29 12:55:00,66.2,42.4,30.25,SW,220,2.0,7.0,42,0.00,,,0.00,Wunderground v.1.15,2013-04-29 16:55:00,
2013-04-29 12:57:00,66.0,41.0,30.25,SSE,165,4.0,7.0,40,0.00,,,0.00,Wunderground v.1.15,2013-04-29 16:57:00,
2013-04-29 12:59:00,65.8,40.1,30.24,West,263,9.0,9.0,39,0.00,,,0.00,Wunderground v.1.15,2013-04-29 16:59:00,
2013-04-29 13:00:00,65.6,38.6,30.25,SSW,211,2.0,4.0,37,0.00,,,0.00,Wunderground v.1.15,2013-04-29 17:00:00,
2013-04-29 13:02:00,65.1,40.2,30.24,West,280,4.0,7.0,40,0.00,,,0.00,Wunderground v.1.15,2013-04-29 17:02:00,
2013-04-29 13:04:00,65.0,40.7,30.24,WSW,243,5.0,7.0,41,0.00,,,0.00,Wunderground v.1.15,2013-04-29 17:04:00,
2013-04-29 13:05:00,64.9,38.7,30.24,SSW,205,2.0,7.0,38,0.00,,,0.00,Wunderground v.1.15,2013-04-29 17:05:00,
2013-04-29 13:07:00,64.8,41.8,30.24,NW,306,2.0,9.0,43,0.00,,,0.00,Wunderground v.1.15,2013-04-29 17:07:00,
2013-04-29 13:09:00,64.8,41.8,30.24,NW,311,3.0,9.0,43,0.00,,,0.00,Wunderground v.1.15,2013-04-29 17:09:00,
2013-04-29 13:10:00,64.8,42.9,30.24,SW,231,4.0,4.0,45,0.00,,,0.00,Wunderground v.1.15,2013-04-29 17:10:00,
2013-04-29 13:13:00,65.1,42.6,30.24,South,183,3.0,6.0,44,0.00,,,0.00,Wunderground v.1.15,2013-04-29 17:13:00,
2013-04-29 13:14:00,65.2,41.5,30.24,WSW,252,5.0,6.0,42,0.00,,,0.00,Wunderground v.1.15,2013-04-29 17:14:00,
2013-04-29 13:15:00,65.3,41.6,30.24,SW,216,3.0,6.0,42,0.00,,,0.00,Wunderground v.1.15,2013-04-29 17:15:00,
2013-04-29 13:16:00,65.3,41.6,30.24,SW,224,2.0,6.0,42,0.00,,,0.00,Wunderground v.1.15,2013-04-29 17:16:00,
2013-04-29 13:18:00,65.6,41.3,30.24,West,274,0.0,8.0,41,0.00,,,0.00,Wunderground v.1.15,2013-04-29 17:18:00,
2013-04-29 13:19:00,65.9,41.5,30.24,SW,214,1.0,8.0,41,0.00,,,0.00,Wunderground v.1.15,2013-04-29 17:19:00,
2013-04-29 13:20:00,66.4,43.8,30.24,SW,229,2.0,7.0,44,0.00,,,0.00,Wunderground v.1.15,2013-04-29 17:20:00,
2013-04-29 13:21:00,66.4,43.8,30.24,SW,229,2.0,7.0,44,0.00,,,0.00,Wunderground v.1.15,2013-04-29 17:21:00,
2013-04-29 13:23:00,66.6,42.2,30.24,WSW,247,3.0,9.0,41,0.00,,,0.00,Wunderground v.1.15,2013-04-29 17:23:00,
2013-04-29 13:24:00,66.6,41.5,30.24,SSW,205,4.0,9.0,40,0.00,,,0.00,Wunderground v.1.15,2013-04-29 17:24:00,
2013-04-29 13:25:00,66.4,38.6,30.25,SSW,194,4.0,9.0,36,0.00,,,0.00,Wunderground v.1.15,2013-04-29 17:25:00,
2013-04-29 13:26:00,66.4,38.6,30.24,WSW,245,7.0,9.0,36,0.00,,,0.00,Wunderground v.1.15,2013-04-29 17:26:00,
2013-04-29 13:28:00,65.9,39.6,30.25,West,278,0.0,16.0,38,0.00,,,0.00,Wunderground v.1.15,2013-04-29 17:28:00,
2013-04-29 13:30:00,65.7,37.3,30.24,SW,214,3.0,4.0,35,0.00,,,0.00,Wunderground v.1.15,2013-04-29 17:30:00,
2013-04-29 13:31:00,65.6,37.9,30.24,WSW,238,2.0,7.0,36,0.00,,,0.00,Wunderground v.1.15,2013-04-29 17:31:00,
2013-04-29 13:33:00,65.4,38.4,30.24,WSW,246,6.0,7.0,37,0.00,,,0.00,Wunderground v.1.15,2013-04-29 17:33:00,
2013-04-29 13:35:00,65.4,39.1,30.24,WSW,255,1.0,10.0,38,0.00,,,0.00,Wunderground v.1.15,2013-04-29 17:35:00,
2013-04-29 13:36:00,65.4,41.1,30.24,SW,226,2.0,10.0,41,0.00,,,0.00,Wunderground v.1.15,2013-04-29 17:36:00,
2013-04-29 13:38:00,65.5,38.5,30.24,NW,314,2.0,10.0,37,0.00,,,0.00,Wunderground v.1.15,2013-04-29 17:38:00,
2013-04-29 13:40:00,65.6,40.6,30.24,NNE,15,1.0,4.0,40,0.00,,,0.00,Wunderground v.1.15,2013-04-29 17:40:00,
2013-04-29 13:41:00,65.6,40.6,30.24,West,274,3.0,4.0,40,0.00,,,0.00,Wunderground v.1.15,2013-04-29 17:41:00,
2013-04-29 13:43:00,65.8,40.8,30.24,NW,315,1.0,5.0,40,0.00,,,0.00,Wunderground v.1.15,2013-04-29 17:43:00,
2013-04-29 13:45:00,65.9,40.9,30.24,SW,236,2.0,5.0,40,0.00,,,0.00,Wunderground v.1.15,2013-04-29 17:45:00,
2013-04-29 13:46:00,65.9,39.6,30.24,SSW,198,3.0,10.0,38,0.00,,,0.00,Wunderground v.1.15,2013-04-29 17:46:00,
2013-04-29 13:49:00,65.7,38.7,30.24,West,264,2.0,10.0,37,0.00,,,0.00,Wunderground v.1.15,2013-04-29 17:49:00,
2013-04-29 13:50:00,65.7,40.1,30.24,WSW,245,0.0,2.0,39,0.00,,,0.00,Wunderground v.1.15,2013-04-29 17:50:00,
2013-04-29 13:51:00,65.7,42.0,30.24,South,184,3.0,3.0,42,0.00,,,0.00,Wunderground v.1.15,2013-04-29 17:51:00,
2013-04-29 13:52:00,65.7,42.0,30.24,SW,218,7.0,7.0,42,0.00,,,0.00,Wunderground v.1.15,2013-04-29 17:52:00,
2013-04-29 13:55:00,65.4,38.4,30.24,WSW,251,0.0,11.0,37,0.00,,,0.00,Wunderground v.1.15,2013-04-29 17:55:00,
2013-04-29 13:56:00,65.3,38.3,30.24,SSW,205,4.0,11.0,37,0.00,,,0.00,Wunderground v.1.15,2013-04-29 17:56:00,
2013-04-29 13:57:00,65.2,38.3,30.24,WSW,253,1.0,11.0,37,0.00,,,0.00,Wunderground v.1.15,2013-04-29 17:57:00,
2013-04-29 14:00:00,65.3,39.0,30.24,SSW,211,7.0,7.0,38,0.00,,,0.00,Wunderground v.1.15,2013-04-29 18:00:00,
2013-04-29 14:01:00,65.3,38.3,30.24,SW,236,3.0,7.0,37,0.00,,,0.00,Wunderground v.1.15,2013-04-29 18:01:00,
2013-04-29 14:02:00,65.3,39.0,30.24,SW,222,4.0,7.0,38,0.00,,,0.00,Wunderground v.1.15,2013-04-29 18:02:00,
2013-04-29 14:05:00,65.5,39.2,30.24,West,264,1.0,7.0,38,0.00,,,0.00,Wunderground v.1.15,2013-04-29 18:05:00,
2013-04-29 14:06:00,65.6,39.3,30.24,SW,236,2.0,7.0,38,0.00,,,0.00,Wunderground v.1.15,2013-04-29 18:06:00,
2013-04-29 14:07:00,65.6,39.3,30.24,SW,226,3.0,7.0,38,0.00,,,0.00,Wunderground v.1.15,2013-04-29 18:07:00,
2013-04-29 14:10:00,65.4,37.0,30.24,SSW,195,3.0,4.0,35,0.00,,,0.00,Wunderground v.1.15,2013-04-29 18:10:00,
2013-04-29 14:12:00,65.3,38.3,30.24,SSW,203,1.0,4.0,37,0.00,,,0.00,Wunderground v.1.15,2013-04-29 18:12:00,
2013-04-29 14:15:00,65.1,40.2,30.24,West,259,1.0,9.0,40,0.00,,,0.00,Wunderground v.1.15,2013-04-29 18:15:00,
2013-04-29 14:16:00,65.1,39.5,30.24,NNE,13,5.0,9.0,39,0.00,,,0.00,Wunderground v.1.15,2013-04-29 18:16:00,
2013-04-29 14:17:00,65.1,38.8,30.24,WSW,250,0.0,9.0,38,0.00,,,0.00,Wunderground v.1.15,2013-04-29 18:17:00,
2013-04-29 14:20:00,65.0,37.4,30.24,SSW,203,3.0,4.0,36,0.00,,,0.00,Wunderground v.1.15,2013-04-29 18:20:00,
2013-04-29 14:21:00,64.9,35.8,30.24,SSW,211,3.0,5.0,34,0.00,,,0.00,Wunderground v.1.15,2013-04-29 18:21:00,
2013-04-29 14:22:00,64.8,36.5,30.24,SW,231,3.0,5.0,35,0.00,,,0.00,Wunderground v.1.15,2013-04-29 18:22:00,
2013-04-29 14:23:00,64.7,36.4,30.24,SW,232,7.0,7.0,35,0.00,,,0.00,Wunderground v.1.15,2013-04-29 18:23:00,
2013-04-29 14:25:00,64.6,38.4,30.24,SSW,204,6.0,7.0,38,0.00,,,0.00,Wunderground v.1.15,2013-04-29 18:25:00,
2013-04-29 14:26:00,64.6,36.3,30.24,SW,232,3.0,8.0,35,0.00,,,0.00,Wunderground v.1.15,2013-04-29 18:26:00,
2013-04-29 14:27:00,64.6,37.7,30.24,SSE,167,6.0,8.0,37,0.00,,,0.00,Wunderground v.1.15,2013-04-29 18:27:00,
2013-04-29 14:28:00,64.6,37.0,30.24,SW,232,1.0,8.0,36,0.00,,,0.00,Wunderground v.1.15,2013-04-29 18:28:00,
2013-04-29 14:30:00,64.6,37.7,30.24,SSW,203,2.0,4.0,37,0.00,,,0.00,Wunderground v.1.15,2013-04-29 18:30:00,
2013-04-29 14:31:00,64.6,37.7,30.24,SW,224,8.0,8.0,37,0.00,,,0.00,Wunderground v.1.15,2013-04-29 18:31:00,
2013-04-29 14:32:00,64.6,35.6,30.24,West,269,0.0,8.0,34,0.00,,,0.00,Wunderground v.1.15,2013-04-29 18:32:00,
2013-04-29 14:33:00,64.5,36.2,30.24,NW,318,1.0,8.0,35,0.00,,,0.00,Wunderground v.1.15,2013-04-29 18:33:00,
2013-04-29 14:36:00,64.5,35.5,30.24,SW,217,0.0,8.0,34,0.00,,,0.00,Wunderground v.1.15,2013-04-29 18:36:00,
2013-04-29 14:37:00,64.4,38.2,30.24,WSW,250,1.0,10.0,38,0.00,,,0.00,Wunderground v.1.15,2013-04-29 18:37:00,
2013-04-29 14:38:00,64.4,36.8,30.24,SW,222,0.0,10.0,36,0.00,,,0.00,Wunderground v.1.15,2013-04-29 18:38:00,
2013-04-29 14:41:00,64.2,37.4,30.24,SSE,165,2.0,5.0,37,0.00,,,0.00,Wunderground v.1.15,2013-04-29 18:41:00,
2013-04-29 14:42:00,64.1,37.3,30.24,SW,233,3.0,11.0,37,0.00,,,0.00,Wunderground v.1.15,2013-04-29 18:42:00,
2013-04-29 14:43:00,64.0,36.5,30.24,WSW,243,5.0,11.0,36,0.00,,,0.00,Wunderground v.1.15,2013-04-29 18:43:00,
2013-04-29 14:46:00,63.9,33.4,30.24,West,263,4.0,11.0,32,0.00,,,0.00,Wunderground v.1.15,2013-04-29 18:46:00,
2013-04-29 14:47:00,63.9,35.7,30.24,WSW,246,3.0,11.0,35,0.00,,,0.00,Wunderground v.1.15,2013-04-29 18:47:00,
2013-04-29 14:48:00,63.8,34.1,30.24,SSW,198,6.0,11.0,33,0.00,,,0.00,Wunderground v.1.15,2013-04-29 18:48:00,
2013-04-29 14:51:00,63.7,33.3,30.24,SSW,207,4.0,6.0,32,0.00,,,0.00,Wunderground v.1.15,2013-04-29 18:51:00,
2013-04-29 14:52:00,63.8,33.4,30.24,WSW,256,2.0,7.0,32,0.00,,,0.00,Wunderground v.1.15,2013-04-29 18:52:00,
2013-04-29 14:53:00,63.8,35.6,30.24,WNW,298,1.0,7.0,35,0.00,,,0.00,Wunderground v.1.15,2013-04-29 18:53:00,
2013-04-29 14:54:00,63.8,35.6,30.24,WSW,249,4.0,7.0,35,0.00,,,0.00,Wunderground v.1.15,2013-04-29 18:54:00,
2013-04-29 14:56:00,63.9,34.2,30.24,SSW,203,3.0,9.0,33,0.00,,,0.00,Wunderground v.1.15,2013-04-29 18:56:00,
2013-04-29 14:57:00,63.9,34.2,30.24,SW,215,4.0,9.0,33,0.00,,,0.00,Wunderground v.1.15,2013-04-29 18:57:00,
2013-04-29 14:58:00,63.8,32.6,30.24,South,186,2.0,9.0,31,0.00,,,0.00,Wunderground v.1.15,2013-04-29 18:58:00,
2013-04-29 14:59:00,63.8,34.9,30.24,WSW,241,4.0,9.0,34,0.00,,,0.00,Wunderground v.1.15,2013-04-29 18:59:00,
2013-04-29 15:01:00,63.6,32.4,30.24,SSE,159,1.0,4.0,31,0.00,,,0.00,Wunderground v.1.15,2013-04-29 19:01:00,
2013-04-29 15:02:00,63.5,33.9,30.24,West,273,4.0,4.0,33,0.00,,,0.00,Wunderground v.1.15,2013-04-29 19:02:00,
2013-04-29 15:03:00,63.5,32.3,30.24,WNW,285,1.0,4.0,31,0.00,,,0.00,Wunderground v.1.15,2013-04-29 19:03:00,
2013-04-29 15:04:00,63.5,35.3,30.24,SW,236,4.0,5.0,35,0.00,,,0.00,Wunderground v.1.15,2013-04-29 19:04:00,
2013-04-29 15:07:00,63.5,34.6,30.24,West,274,1.0,5.0,34,0.00,,,0.00,Wunderground v.1.15,2013-04-29 19:07:00,
2013-04-29 15:08:00,63.5,34.6,30.24,WSW,248,2.0,5.0,34,0.00,,,0.00,Wunderground v.1.15,2013-04-29 19:08:00,
2013-04-29 15:09:00,63.5,32.3,30.24,SW,222,0.0,5.0,31,0.00,,,0.00,Wunderground v.1.15,2013-04-29 19:09:00,
2013-04-29 15:12:00,63.3,31.3,30.25,SSW,195,4.0,10.0,30,0.00,,,0.00,Wunderground v.1.15,2013-04-29 19:12:00,
2013-04-29 15:13:00,63.2,31.2,30.25,WSW,240,7.0,10.0,30,0.00,,,0.00,Wunderground v.1.15,2013-04-29 19:13:00,
2013-04-29 15:14:00,62.9,30.1,30.25,SW,217,1.0,10.0,29,0.00,,,0.00,Wunderground v.1.15,2013-04-29 19:14:00,
2013-04-29 15:15:00,62.8,30.0,30.25,SSW,203,1.0,10.0,29,0.00,,,0.00,Wunderground v.1.15,2013-04-29 19:15:00,
2013-04-29 15:17:00,62.6,31.5,30.24,WSW,245,2.0,10.0,31,0.00,,,0.00,Wunderground v.1.15,2013-04-29 19:17:00,
2013-04-29 15:18:00,62.6,31.5,30.25,WSW,258,7.0,10.0,31,0.00,,,0.00,Wunderground v.1.15,2013-04-29 19:18:00,
2013-04-29 15:19:00,62.5,32.2,30.24,South,174,3.0,10.0,32,0.00,,,0.00,Wunderground v.1.15,2013-04-29 19:19:00,
2013-04-29 15:20:00,62.5,31.4,30.25,SW,236,2.0,6.0,31,0.00,,,0.00,Wunderground v.1.15,2013-04-29 19:20:00,
2013-04-29 15:23:00,62.4,30.5,30.24,WSW,248,2.0,8.0,30,0.00,,,0.00,Wunderground v.1.15,2013-04-29 19:23:00,
2013-04-29 15:24:00,62.2,29.5,30.25,WSW,252,1.0,10.0,29,0.00,,,0.00,Wunderground v.1.15,2013-04-29 19:24:00,
2013-04-29 15:25:00,62.2,31.2,30.24,North,9,7.0,10.0,31,0.00,,,0.00,Wunderground v.1.15,2013-04-29 19:25:00,
2013-04-29 15:28:00,62.0,31.8,30.24,SSE,167,1.0,10.0,32,0.00,,,0.00,Wunderground v.1.15,2013-04-29 19:28:00,
2013-04-29 15:30:00,61.9,30.1,30.24,SW,222,8.0,8.0,30,0.00,,,0.00,Wunderground v.1.15,2013-04-29 19:30:00,
2013-04-29 15:33:00,61.6,32.2,30.24,SW,226,7.0,12.0,33,0.00,,,0.00,Wunderground v.1.15,2013-04-29 19:33:00,
2013-04-29 15:34:00,61.6,29.0,30.25,SE,129,3.0,12.0,29,0.00,,,0.00,Wunderground v.1.15,2013-04-29 19:34:00,
2013-04-29 15:35:00,61.5,28.9,30.24,SW,221,3.0,12.0,29,0.00,,,0.00,Wunderground v.1.15,2013-04-29 19:35:00,
2013-04-29 15:38:00,61.5,29.7,30.24,NNW,343,0.0,12.0,30,0.00,,,0.00,Wunderground v.1.15,2013-04-29 19:38:00,
2013-04-29 15:39:00,61.5,32.1,30.24,NNW,343,2.0,12.0,33,0.00,,,0.00,Wunderground v.1.15,2013-04-29 19:39:00,
2013-04-29 15:40:00,61.6,32.2,30.24,NNW,332,2.0,3.0,33,0.00,,,0.00,Wunderground v.1.15,2013-04-29 19:40:00,
2013-04-29 15:44:00,61.5,29.7,30.24,SW,229,1.0,12.0,30,0.00,,,0.00,Wunderground v.1.15,2013-04-29 19:44:00,
2013-04-29 15:45:00,61.5,31.3,30.24,WNW,294,5.0,12.0,32,0.00,,,0.00,Wunderground v.1.15,2013-04-29 19:45:00,
2013-04-29 15:50:00,61.0,28.5,30.24,NNE,12,1.0,3.0,29,0.00,,,0.00,Wunderground v.1.15,2013-04-29 19:50:00,
2013-04-29 15:51:00,61.0,30.1,30.24,NNW,332,0.0,5.0,31,0.00,,,0.00,Wunderground v.1.15,2013-04-29 19:51:00,
2013-04-29 15:55:00,61.1,27.7,30.24,SW,224,2.0,6.0,28,0.00,,,0.00,Wunderground v.1.15,2013-04-29 19:55:00,
2013-04-29 15:56:00,61.1,27.7,30.24,West,269,1.0,6.0,28,0.00,,,0.00,Wunderground v.1.15,2013-04-29 19:56:00,
2013-04-29 16:00:00,61.2,29.5,30.24,NNW,347,1.0,5.0,30,0.00,,,0.00,Wunderground v.1.15,2013-04-29 20:00:00,
2013-04-29 16:01:00,61.2,32.6,30.24,East,95,1.0,5.0,34,0.00,,,0.00,Wunderground v.1.15,2013-04-29 20:01:00,
2013-04-29 16:05:00,60.9,28.4,30.24,NNW,335,0.0,8.0,29,0.00,,,0.00,Wunderground v.1.15,2013-04-29 20:05:00,
2013-04-29 16:06:00,60.9,31.6,30.24,WNW,290,3.0,8.0,33,0.00,,,0.00,Wunderground v.1.15,2013-04-29 20:06:00,
2013-04-29 16:10:00,60.5,28.1,30.24,WNW,297,4.0,4.0,29,0.00,,,0.00,Wunderground v.1.15,2013-04-29 20:10:00,
2013-04-29 16:11:00,60.4,28.8,30.24,SW,236,2.0,4.0,30,0.00,,,0.00,Wunderground v.1.15,2013-04-29 20:11:00,
2013-04-29 16:12:00,60.4,28.0,30.24,SSW,211,4.0,4.0,29,0.00,,,0.00,Wunderground v.1.15,2013-04-29 20:12:00,
2013-04-29 16:16:00,60.3,30.3,30.24,WNW,284,7.0,7.0,32,0.00,,,0.00,Wunderground v.1.15,2013-04-29 20:16:00,
2013-04-29 16:17:00,60.3,27.9,30.24,SSW,211,2.0,8.0,29,0.00,,,0.00,Wunderground v.1.15,2013-04-29 20:17:00,
2013-04-29 16:21:00,60.1,26.9,30.24,WSW,239,3.0,5.0,28,0.00,,,0.00,Wunderground v.1.15,2013-04-29 20:21:00,
2013-04-29 16:22:00,60.0,26.8,30.24,WSW,239,4.0,7.0,28,0.00,,,0.00,Wunderground v.1.15,2013-04-29 20:22:00,
2013-04-29 16:26:00,60.0,26.8,30.24,West,276,3.0,7.0,28,0.00,,,0.00,Wunderground v.1.15,2013-04-29 20:26:00,
2013-04-29 22:32:00,50.2,31.2,30.28,SW,236,0.0,0.0,48,0.00,,,0.00,Wunderground v.1.15,2013-04-30 02:32:00,
2013-04-29 22:33:00,50.2,31.2,30.28,SW,236,0.0,0.0,48,0.00,,,0.00,Wunderground v.1.15,2013-04-30 02:33:00,
2013-04-29 22:37:00,50.1,31.2,30.28,WSW,248,0.0,2.0,48,0.00,,,0.00,Wunderground v.1.15,2013-04-30 02:37:00,
2013-04-29 22:38:00,50.1,31.2,30.28,WSW,248,0.0,2.0,48,0.00,,,0.00,Wunderground v.1.15,2013-04-30 02:38:00,
2013-04-29 22:42:00,50.0,31.6,30.28,WSW,249,0.0,0.0,49,0.00,,,0.00,Wunderground v.1.15,2013-04-30 02:42:00,
2013-04-29 22:43:00,50.0,31.6,30.28,WSW,249,0.0,0.0,49,0.00,,,0.00,Wunderground v.1.15,2013-04-30 02:43:00,
2013-04-29 22:48:00,49.8,31.9,30.28,NW,319,0.0,0.0,50,0.00,,,0.00,Wunderground v.1.15,2013-04-30 02:48:00,
2013-04-29 22:53:00,49.7,31.8,30.28,West,269,0.0,1.0,50,0.00,,,0.00,Wunderground v.1.15,2013-04-30 02:53:00,
2013-04-29 22:54:00,49.7,31.8,30.28,West,269,0.0,1.0,50,0.00,,,0.00,Wunderground v.1.15,2013-04-30 02:54:00,
2013-04-29 22:58:00,49.9,32.0,30.28,WSW,238,0.0,2.0,50,0.00,,,0.00,Wunderground v.1.15,2013-04-30 02:58:00,
2013-04-29 22:59:00,49.9,32.0,30.28,WSW,238,0.0,2.0,50,0.00,,,0.00,Wunderground v.1.15,2013-04-30 02:59:00,
2013-04-29 23:03:00,50.0,32.1,30.28,SW,226,0.0,1.0,50,0.00,,,0.00,Wunderground v.1.15,2013-04-30 03:03:00,
2013-04-29 23:04:00,50.0,32.6,30.28,SW,226,0.0,1.0,51,0.00,,,0.00,Wunderground v.1.15,2013-04-30 03:04:00,
2013-04-29 23:05:00,50.0,32.6,30.28,SW,226,0.0,1.0,51,0.00,,,0.00,Wunderground v.1.15,2013-04-30 03:05:00,
2013-04-29 23:08:00,50.0,32.6,30.28,West,276,0.0,1.0,51,0.00,,,0.00,Wunderground v.1.15,2013-04-30 03:08:00,
2013-04-29 23:09:00,50.0,32.6,30.28,West,276,0.0,1.0,51,0.00,,,0.00,Wunderground v.1.15,2013-04-30 03:09:00,
2013-04-29 23:10:00,50.0,32.6,30.28,West,276,0.0,0.0,51,0.00,,,0.00,Wunderground v.1.15,2013-04-30 03:10:00,
2013-04-29 23:13:00,50.0,33.1,30.28,West,274,0.0,0.0,52,0.00,,,0.00,Wunderground v.1.15,2013-04-30 03:13:00,
2013-04-29 23:14:00,50.0,32.6,30.28,West,274,0.0,0.0,51,0.00,,,0.00,Wunderground v.1.15,2013-04-30 03:14:00,
2013-04-29 23:15:00,50.0,32.6,30.28,West,274,0.0,0.0,51,0.00,,,0.00,Wunderground v.1.15,2013-04-30 03:15:00,
2013-04-29 23:18:00,49.9,32.5,30.28,West,274,0.0,0.0,51,0.00,,,0.00,Wunderground v.1.15,2013-04-30 03:18:00,
2013-04-29 23:19:00,49.9,33.0,30.28,West,274,0.0,0.0,52,0.00,,,0.00,Wunderground v.1.15,2013-04-30 03:19:00,
2013-04-29 23:20:00,49.9,33.0,30.28,West,274,0.0,0.0,52,0.00,,,0.00,Wunderground v.1.15,2013-04-30 03:20:00,
2013-04-29 23:23:00,49.8,32.9,30.28,West,264,0.0,1.0,52,0.00,,,0.00,Wunderground v.1.15,2013-04-30 03:23:00,
2013-04-29 23:24:00,49.8,32.9,30.28,West,264,0.0,1.0,52,0.00,,,0.00,Wunderground v.1.15,2013-04-30 03:24:00,
2013-04-29 23:25:00,49.8,33.3,30.28,WSW,243,1.0,1.0,53,0.00,,,0.00,Wunderground v.1.15,2013-04-30 03:25:00,
2013-04-29 23:26:00,49.8,33.3,30.28,WSW,242,0.0,1.0,53,0.00,,,0.00,Wunderground v.1.15,2013-04-30 03:26:00,
2013-04-29 23:28:00,49.8,33.3,30.28,WSW,257,0.0,1.0,53,0.00,,,0.00,Wunderground v.1.15,2013-04-30 03:28:00,
2013-04-29 23:29:00,49.8,33.3,30.28,WSW,257,0.0,1.0,53,0.00,,,0.00,Wunderground v.1.15,2013-04-30 03:29:00,
2013-04-29 23:31:00,49.8,33.3,30.28,West,277,0.0,1.0,53,0.00,,,0.00,Wunderground v.1.15,2013-04-30 03:31:00,
2013-04-29 23:33:00,49.8,33.8,30.28,West,277,0.0,1.0,54,0.00,,,0.00,Wunderground v.1.15,2013-04-30 03:33:00,
2013-04-29 23:34:00,49.8,33.8,30.28,West,276,0.0,1.0,54,0.00,,,0.00,Wunderground v.1.15,2013-04-30 03:34:00,
2013-04-29 23:35:00,49.7,33.7,30.28,West,274,0.0,1.0,54,0.00,,,0.00,Wunderground v.1.15,2013-04-30 03:35:00,
2013-04-29 23:36:00,49.7,33.7,30.28,NW,319,1.0,1.0,54,0.00,,,0.00,Wunderground v.1.15,2013-04-30 03:36:00,
2013-04-29 23:39:00,49.7,33.7,30.28,SW,236,0.0,1.0,54,0.00,,,0.00,Wunderground v.1.15,2013-04-30 03:39:00,
2013-04-29 23:40:00,49.7,33.7,30.28,South,169,0.0,0.0,54,0.00,,,0.00,Wunderground v.1.15,2013-04-30 03:40:00,
2013-04-29 23:41:00,49.7,34.2,30.28,South,176,0.0,1.0,55,0.00,,,0.00,Wunderground v.1.15,2013-04-30 03:41:00,
2013-04-29 23:44:00,49.7,33.7,30.28,West,273,0.0,2.0,54,0.00,,,0.00,Wunderground v.1.15,2013-04-30 03:44:00,
2013-04-29 23:45:00,49.7,33.7,30.28,West,269,0.0,2.0,54,0.00,,,0.00,Wunderground v.1.15,2013-04-30 03:45:00,
2013-04-29 23:46:00,49.8,33.8,30.28,SW,231,0.0,2.0,54,0.00,,,0.00,Wunderground v.1.15,2013-04-30 03:46:00,
2013-04-29 23:49:00,49.8,34.3,30.28,SW,233,0.0,2.0,55,0.00,,,0.00,Wunderground v.1.15,2013-04-30 03:49:00,
2013-04-29 23:50:00,49.8,34.3,30.28,WSW,252,0.0,0.0,55,0.00,,,0.00,Wunderground v.1.15,2013-04-30 03:50:00,
2013-04-29 23:51:00,49.8,34.3,30.28,WSW,250,0.0,0.0,55,0.00,,,0.00,Wunderground v.1.15,2013-04-30 03:51:00,
2013-04-29 23:54:00,49.8,34.3,30.28,SW,222,0.0,1.0,55,0.00,,,0.00,Wunderground v.1.15,2013-04-30 03:54:00,
2013-04-29 23:55:00,49.8,34.3,30.28,SW,222,0.0,1.0,55,0.00,,,0.00,Wunderground v.1.15,2013-04-30 03:55:00,
2013-04-29 23:56:00,49.8,34.3,30.28,WSW,255,0.0,2.0,55,0.00,,,0.00,Wunderground v.1.15,2013-04-30 03:56:00,
2013-04-29 23:57:00,49.8,34.3,30.28,WSW,252,0.0,2.0,55,0.00,,,0.00,Wunderground v.1.15,2013-04-30 03:57:00,
2013-04-29 23:59:00,49.9,34.4,30.28,WSW,250,0.0,2.0,55,0.00,,,0.00,Wunderground v.1.15,2013-04-30 03:59:00,